Wetterdaten: Freitag, 13.03.2020
Datum Zeit Temp. Aussen Temp. o. S. Temp +5cm Feuchte Auss Luftdruck Regen Sonnenschein Regendauer Solar Windben Empfang
13.03.2020 00:00 6,4 C 5,6 C 5,0 C 83 % 1012,5 hPa 0,0 l/m 0 min 0 min 0 W/m 16,1 km/h (3 Bft) 97,92 %
13.03.2020 00:02 6,4 C 5,6 C 5,0 C 82 % 1012,6 hPa 0,0 l/m 0 min 0 min 0 W/m 22,5 km/h (4 Bft) 94,87 %
13.03.2020 00:04 6,4 C 5,6 C 5,0 C 83 % 1012,6 hPa 0,0 l/m 0 min 0 min 0 W/m 12,9 km/h (3 Bft) 95,83 %
13.03.2020 00:07 6,4 C 5,6 C 5,0 C 82 % 1012,6 hPa 0,0 l/m 0 min 0 min 0 W/m 19,3 km/h (3 Bft) 95,83 %
13.03.2020 00:08 6,4 C 5,6 C 5,0 C 82 % 1012,6 hPa 0,0 l/m 0 min 0 min 0 W/m 19,3 km/h (3 Bft) 96,47 %
13.03.2020 00:10 6,3 C 5,6 C 5,0 C 82 % 1012,6 hPa 0,0 l/m 0 min 0 min 0 W/m 16,1 km/h (3 Bft) 97,92 %
13.03.2020 00:12 6,3 C 5,6 C 5,0 C 82 % 1012,6 hPa 0,0 l/m 0 min 0 min 0 W/m 6,4 km/h (2 Bft) 97,87 %
13.03.2020 00:14 6,3 C 5,6 C 5,0 C 82 % 1012,6 hPa 0,0 l/m 0 min 0 min 0 W/m 16,1 km/h (3 Bft) 97,87 %
13.03.2020 00:16 6,3 C 5,6 C 5,0 C 82 % 1012,6 hPa 0,0 l/m 0 min 0 min 0 W/m 12,9 km/h (3 Bft) 97,92 %
13.03.2020 00:18 6,3 C 5,0 C 5,0 C 82 % 1012,5 hPa 0,0 l/m 0 min 0 min 0 W/m 16,1 km/h (3 Bft) 97,87 %
13.03.2020 00:20 6,2 C 5,0 C 5,0 C 83 % 1012,5 hPa 0,0 l/m 0 min 0 min 0 W/m 16,1 km/h (3 Bft) 97,87 %
13.03.2020 00:22 6,2 C 5,0 C 5,0 C 83 % 1012,6 hPa 0,0 l/m 0 min 0 min 0 W/m 16,1 km/h (3 Bft) 97,87 %
13.03.2020 00:24 6,2 C 5,0 C 4,4 C 83 % 1012,6 hPa 0,0 l/m 0 min 0 min 0 W/m 16,1 km/h (3 Bft) 97,92 %
13.03.2020 00:26 6,1 C 5,0 C 4,4 C 83 % 1012,6 hPa 0,0 l/m 0 min 0 min 0 W/m 6,4 km/h (2 Bft) 97,87 %
13.03.2020 00:28 6,1 C 5,0 C 4,4 C 83 % 1012,6 hPa 0,0 l/m 0 min 0 min 0 W/m 12,9 km/h (3 Bft) 97,87 %
13.03.2020 00:30 6,1 C 5,0 C 4,4 C 83 % 1012,6 hPa 0,0 l/m 0 min 0 min 0 W/m 12,9 km/h (3 Bft) 97,87 %
13.03.2020 00:32 6,1 C 5,0 C 4,4 C 83 % 1012,5 hPa 0,0 l/m 0 min 0 min 0 W/m 12,9 km/h (3 Bft) 95,74 %
13.03.2020 00:34 6,0 C 5,0 C 4,4 C 83 % 1012,6 hPa 0,0 l/m 0 min 0 min 0 W/m 19,3 km/h (3 Bft) 95,74 %
13.03.2020 00:36 5,9 C 5,0 C 4,4 C 83 % 1012,6 hPa 0,0 l/m 0 min 0 min 0 W/m 19,3 km/h (3 Bft) 97,83 %
13.03.2020 00:38 5,9 C 5,0 C 4,4 C 84 % 1012,5 hPa 0,0 l/m 0 min 0 min 0 W/m 19,3 km/h (3 Bft) 95,74 %
13.03.2020 00:40 5,9 C 5,0 C 4,4 C 84 % 1012,6 hPa 0,0 l/m 0 min 0 min 0 W/m 19,3 km/h (3 Bft) 97,87 %
13.03.2020 00:42 5,9 C 5,0 C 4,4 C 84 % 1012,6 hPa 0,0 l/m 0 min 0 min 0 W/m 12,9 km/h (3 Bft) 97,87 %
13.03.2020 00:44 5,8 C 5,0 C 4,4 C 84 % 1012,6 hPa 0,0 l/m 0 min 0 min 0 W/m 19,3 km/h (3 Bft) 97,87 %
13.03.2020 00:46 5,8 C 5,0 C 4,4 C 84 % 1012,7 hPa 0,0 l/m 0 min 0 min 0 W/m 12,9 km/h (3 Bft) 95,65 %
13.03.2020 00:48 5,8 C 5,0 C 4,4 C 84 % 1012,6 hPa 0,0 l/m 0 min 0 min 0 W/m 19,3 km/h (3 Bft) 97,87 %
13.03.2020 00:50 5,8 C 5,0 C 4,4 C 84 % 1012,6 hPa 0,0 l/m 0 min 0 min 0 W/m 22,5 km/h (4 Bft) 100,00 %
13.03.2020 00:52 5,8 C 5,0 C 4,4 C 84 % 1012,7 hPa 0,0 l/m 0 min 0 min 0 W/m 25,7 km/h (4 Bft) 97,87 %
13.03.2020 00:54 5,8 C 5,0 C 4,4 C 85 % 1012,6 hPa 0,0 l/m 0 min 0 min 0 W/m 22,5 km/h (4 Bft) 100,00 %
13.03.2020 00:56 5,8 C 5,0 C 4,4 C 85 % 1012,6 hPa 0,0 l/m 0 min 0 min 0 W/m 16,1 km/h (3 Bft) 97,87 %
13.03.2020 00:58 5,7 C 5,0 C 4,4 C 85 % 1012,6 hPa 0,0 l/m 0 min 0 min 0 W/m 22,5 km/h (4 Bft) 100,00 %
13.03.2020 01:00 5,7 C 5,0 C 4,4 C 85 % 1012,6 hPa 0,0 l/m 0 min 0 min 0 W/m 16,1 km/h (3 Bft) 100,00 %
13.03.2020 01:02 5,7 C 5,0 C 4,4 C 85 % 1012,6 hPa 0,0 l/m 0 min 0 min 0 W/m 19,3 km/h (3 Bft) 100,00 %
13.03.2020 01:04 5,7 C 5,0 C 4,4 C 85 % 1012,6 hPa 0,0 l/m 0 min 0 min 0 W/m 25,7 km/h (4 Bft) 100,00 %
13.03.2020 01:06 5,7 C 5,0 C 4,4 C 85 % 1012,7 hPa 0,0 l/m 0 min 0 min 0 W/m 16,1 km/h (3 Bft) 100,00 %
13.03.2020 01:08 5,7 C 5,0 C 4,4 C 85 % 1012,7 hPa 0,0 l/m 0 min 0 min 0 W/m 25,7 km/h (4 Bft) 97,87 %
13.03.2020 01:10 5,7 C 5,0 C 4,4 C 85 % 1012,9 hPa 0,0 l/m 0 min 0 min 0 W/m 22,5 km/h (4 Bft) 100,00 %
13.03.2020 01:12 5,7 C 5,0 C 4,4 C 85 % 1012,7 hPa 0,0 l/m 0 min 0 min 0 W/m 22,5 km/h (4 Bft) 97,67 %
13.03.2020 01:14 5,7 C 5,0 C 4,4 C 85 % 1012,7 hPa 0,0 l/m 0 min 0 min 0 W/m 12,9 km/h (3 Bft) 100,00 %
13.03.2020 01:16 5,7 C 5,0 C 4,4 C 85 % 1012,8 hPa 0,0 l/m 0 min 0 min 0 W/m 29,0 km/h (5 Bft) 100,00 %
13.03.2020 01:18 5,7 C 5,0 C 4,4 C 85 % 1012,7 hPa 0,0 l/m 0 min 0 min 0 W/m 19,3 km/h (3 Bft) 97,83 %
13.03.2020 01:20 5,6 C 5,0 C 4,4 C 85 % 1012,8 hPa 0,0 l/m 0 min 0 min 0 W/m 9,7 km/h (2 Bft) 100,00 %
13.03.2020 01:22 5,6 C 5,0 C 4,4 C 86 % 1012,8 hPa 0,0 l/m 0 min 0 min 0 W/m 6,4 km/h (2 Bft) 100,00 %
13.03.2020 01:24 5,6 C 5,0 C 4,4 C 86 % 1012,9 hPa 0,0 l/m 0 min 0 min 0 W/m 16,1 km/h (3 Bft) 100,00 %
13.03.2020 01:26 5,6 C 5,0 C 4,4 C 86 % 1012,9 hPa 0,0 l/m 0 min 0 min 0 W/m 16,1 km/h (3 Bft) 100,00 %
13.03.2020 01:28 5,6 C 5,0 C 4,4 C 86 % 1012,8 hPa 0,0 l/m 0 min 0 min 0 W/m 19,3 km/h (3 Bft) 97,87 %
13.03.2020 01:30 5,6 C 5,0 C 4,4 C 86 % 1013,1 hPa 0,0 l/m 0 min 0 min 0 W/m 19,3 km/h (3 Bft) 100,00 %
13.03.2020 01:32 5,6 C 5,0 C 4,4 C 86 % 1012,8 hPa 0,0 l/m 0 min 0 min 0 W/m 25,7 km/h (4 Bft) 100,00 %
13.03.2020 01:34 5,6 C 5,0 C 4,4 C 86 % 1012,8 hPa 0,0 l/m 0 min 0 min 0 W/m 16,1 km/h (3 Bft) 100,00 %
13.03.2020 01:36 5,6 C 5,0 C 4,4 C 86 % 1012,8 hPa 0,0 l/m 0 min 0 min 0 W/m 22,5 km/h (4 Bft) 100,00 %
13.03.2020 01:38 5,6 C 5,0 C 4,4 C 86 % 1012,8 hPa 0,0 l/m 0 min 0 min 0 W/m 22,5 km/h (4 Bft) 100,00 %
13.03.2020 01:40 5,6 C 5,0 C 4,4 C 86 % 1012,9 hPa 0,0 l/m 0 min 0 min 0 W/m 6,4 km/h (2 Bft) 100,00 %
13.03.2020 01:42 5,6 C 5,0 C 4,4 C 86 % 1012,9 hPa 0,0 l/m 0 min 0 min 0 W/m 35,4 km/h (5 Bft) 97,87 %
13.03.2020 01:44 5,6 C 5,0 C 4,4 C 86 % 1012,9 hPa 0,0 l/m 0 min 0 min 0 W/m 16,1 km/h (3 Bft) 97,92 %
13.03.2020 01:46 5,6 C 5,0 C 4,4 C 86 % 1012,8 hPa 0,0 l/m 0 min 0 min 0 W/m 12,9 km/h (3 Bft) 100,00 %
13.03.2020 01:48 5,6 C 5,0 C 4,4 C 86 % 1012,9 hPa 0,0 l/m 0 min 0 min 0 W/m 19,3 km/h (3 Bft) 100,00 %
13.03.2020 01:50 5,6 C 5,0 C 4,4 C 86 % 1012,7 hPa 0,0 l/m 0 min 0 min 0 W/m 22,5 km/h (4 Bft) 97,87 %
13.03.2020 01:52 5,6 C 5,0 C 4,4 C 86 % 1012,7 hPa 0,0 l/m 0 min 0 min 0 W/m 22,5 km/h (4 Bft) 95,65 %
13.03.2020 01:54 5,6 C 5,0 C 4,4 C 86 % 1012,7 hPa 0,0 l/m 0 min 0 min 0 W/m 29,0 km/h (5 Bft) 97,92 %
13.03.2020 01:56 5,6 C 5,0 C 4,4 C 86 % 1012,7 hPa 0,0 l/m 0 min 0 min 0 W/m 25,7 km/h (4 Bft) 97,83 %
13.03.2020 01:58 5,6 C 5,0 C 4,4 C 86 % 1012,8 hPa 0,0 l/m 0 min 0 min 0 W/m 6,4 km/h (2 Bft) 93,62 %
13.03.2020 02:00 5,6 C 5,0 C 4,4 C 86 % 1012,7 hPa 0,0 l/m 0 min 0 min 0 W/m 16,1 km/h (3 Bft) 95,74 %
13.03.2020 02:02 5,6 C 5,0 C 4,4 C 86 % 1012,8 hPa 0,0 l/m 0 min 0 min 0 W/m 16,1 km/h (3 Bft) 95,74 %
13.03.2020 02:04 5,6 C 5,0 C 4,4 C 86 % 1012,8 hPa 0,0 l/m 0 min 0 min 0 W/m 12,9 km/h (3 Bft) 95,24 %
13.03.2020 02:06 5,6 C 5,0 C 4,4 C 86 % 1012,8 hPa 0,0 l/m 0 min 0 min 0 W/m 0,0 km/h (0 Bft) 95,83 %
13.03.2020 02:08 5,6 C 5,0 C 4,4 C 86 % 1012,8 hPa 0,0 l/m 0 min 0 min 0 W/m 25,7 km/h (4 Bft) 93,62 %
13.03.2020 02:10 5,6 C 5,0 C 4,4 C 86 % 1012,8 hPa 0,0 l/m 0 min 0 min 0 W/m 32,2 km/h (5 Bft) 95,74 %
13.03.2020 02:12 5,6 C 5,0 C 4,4 C 86 % 1012,8 hPa 0,0 l/m 0 min 0 min 0 W/m 22,5 km/h (4 Bft) 95,74 %
13.03.2020 02:14 5,6 C 5,0 C 4,4 C 86 % 1012,8 hPa 0,0 l/m 0 min 0 min 0 W/m 0,0 km/h (0 Bft) 93,75 %
13.03.2020 02:16 5,6 C 4,4 C 4,4 C 86 % 1012,7 hPa 0,0 l/m 0 min 0 min 0 W/m 12,9 km/h (3 Bft) 95,65 %
13.03.2020 02:18 5,6 C 5,0 C 4,4 C 86 % 1012,8 hPa 0,0 l/m 0 min 0 min 0 W/m 6,4 km/h (2 Bft) 93,75 %
13.03.2020 02:20 5,5 C 5,0 C 4,4 C 86 % 1012,8 hPa 0,0 l/m 0 min 0 min 0 W/m 12,9 km/h (3 Bft) 93,62 %
13.03.2020 02:22 5,5 C 5,0 C 4,4 C 86 % 1012,8 hPa 0,0 l/m 0 min 0 min 0 W/m 19,3 km/h (3 Bft) 95,74 %
13.03.2020 02:24 5,5 C 5,0 C 4,4 C 86 % 1012,8 hPa 0,0 l/m 0 min 0 min 0 W/m 19,3 km/h (3 Bft) 93,75 %
13.03.2020 02:26 5,5 C 5,0 C 4,4 C 86 % 1012,8 hPa 0,0 l/m 0 min 0 min 0 W/m 6,4 km/h (2 Bft) 95,65 %
13.03.2020 02:28 5,5 C 5,0 C 4,4 C 86 % 1012,7 hPa 0,0 l/m 0 min 0 min 0 W/m 16,1 km/h (3 Bft) 93,75 %
13.03.2020 02:30 5,5 C 4,4 C 4,4 C 86 % 1012,7 hPa 0,0 l/m 0 min 0 min 0 W/m 38,6 km/h (5 Bft) 93,48 %
13.03.2020 02:32 5,5 C 4,4 C 4,4 C 86 % 1012,7 hPa 0,0 l/m 0 min 0 min 0 W/m 19,3 km/h (3 Bft) 93,62 %
13.03.2020 02:34 5,5 C 5,0 C 4,4 C 86 % 1012,8 hPa 0,0 l/m 0 min 0 min 0 W/m 16,1 km/h (3 Bft) 91,49 %
13.03.2020 02:36 5,5 C 5,0 C 4,4 C 86 % 1012,7 hPa 0,0 l/m 0 min 0 min 0 W/m 22,5 km/h (4 Bft) 95,74 %
13.03.2020 02:38 5,5 C 5,0 C 4,4 C 86 % 1012,8 hPa 0,0 l/m 0 min 0 min 0 W/m 29,0 km/h (5 Bft) 93,62 %
13.03.2020 02:40 5,5 C 5,0 C 4,4 C 86 % 1012,7 hPa 0,0 l/m 0 min 0 min 0 W/m 19,3 km/h (3 Bft) 95,74 %
13.03.2020 02:42 5,5 C 5,0 C 4,4 C 86 % 1012,8 hPa 0,0 l/m 0 min 0 min 0 W/m 25,7 km/h (4 Bft) 95,65 %
13.03.2020 02:44 5,5 C 5,0 C 4,4 C 86 % 1012,7 hPa 0,0 l/m 0 min 0 min 0 W/m 25,7 km/h (4 Bft) 91,49 %
13.03.2020 02:46 5,5 C 5,0 C 4,4 C 86 % 1012,7 hPa 0,0 l/m 0 min 0 min 0 W/m 25,7 km/h (4 Bft) 95,74 %
13.03.2020 02:48 5,5 C 5,0 C 4,4 C 86 % 1012,7 hPa 0,0 l/m 0 min 0 min 0 W/m 32,2 km/h (5 Bft) 93,62 %
13.03.2020 02:50 5,6 C 5,0 C 4,4 C 86 % 1012,7 hPa 0,0 l/m 0 min 0 min 0 W/m 29,0 km/h (5 Bft) 95,74 %
13.03.2020 02:52 5,6 C 5,0 C 4,4 C 86 % 1012,8 hPa 0,0 l/m 0 min 0 min 0 W/m 19,3 km/h (3 Bft) 95,74 %
13.03.2020 02:54 5,6 C 5,0 C 4,4 C 86 % 1012,8 hPa 0,0 l/m 0 min 0 min 0 W/m 22,5 km/h (4 Bft) 93,48 %
13.03.2020 02:56 5,6 C 5,0 C 4,4 C 86 % 1012,9 hPa 0,0 l/m 0 min 0 min 0 W/m 25,7 km/h (4 Bft) 97,87 %
13.03.2020 02:58 5,6 C 5,0 C 4,4 C 86 % 1012,8 hPa 0,0 l/m 0 min 0 min 0 W/m 25,7 km/h (4 Bft) 97,87 %
13.03.2020 03:00 5,6 C 5,0 C 4,4 C 86 % 1012,9 hPa 0,0 l/m 0 min 0 min 0 W/m 22,5 km/h (4 Bft) 97,87 %
13.03.2020 03:02 5,6 C 5,0 C 4,4 C 86 % 1013,1 hPa 0,0 l/m 0 min 0 min 0 W/m 29,0 km/h (5 Bft) 97,87 %
13.03.2020 03:04 5,6 C 5,0 C 4,4 C 86 % 1013,0 hPa 0,0 l/m 0 min 0 min 0 W/m 25,7 km/h (4 Bft) 97,87 %
13.03.2020 03:06 5,6 C 5,0 C 4,4 C 86 % 1012,9 hPa 0,0 l/m 0 min 0 min 0 W/m 29,0 km/h (5 Bft) 97,56 %
13.03.2020 03:08 5,7 C 5,0 C 4,4 C 86 % 1012,9 hPa 0,0 l/m 0 min 0 min 0 W/m 19,3 km/h (3 Bft) 95,74 %
13.03.2020 03:10 5,7 C 5,0 C 4,4 C 86 % 1012,9 hPa 0,0 l/m 0 min 0 min 0 W/m 12,9 km/h (3 Bft) 97,87 %
13.03.2020 03:12 5,7 C 5,0 C 4,4 C 86 % 1013,0 hPa 0,0 l/m 0 min 0 min 0 W/m 25,7 km/h (4 Bft) 100,00 %
13.03.2020 03:14 5,7 C 5,0 C 4,4 C 85 % 1012,9 hPa 0,0 l/m 0 min 0 min 0 W/m 16,1 km/h (3 Bft) 100,00 %
13.03.2020 03:16 5,8 C 5,0 C 4,4 C 85 % 1012,8 hPa 0,0 l/m 0 min 0 min 0 W/m 12,9 km/h (3 Bft) 97,92 %
13.03.2020 03:18 5,8 C 5,0 C 4,4 C 85 % 1012,9 hPa 0,0 l/m 0 min 0 min 0 W/m 16,1 km/h (3 Bft) 100,00 %
13.03.2020 03:20 5,8 C 5,0 C 4,4 C 85 % 1012,9 hPa 0,0 l/m 0 min 0 min 0 W/m 12,9 km/h (3 Bft) 100,00 %
13.03.2020 03:22 5,8 C 5,0 C 4,4 C 85 % 1012,9 hPa 0,0 l/m 0 min 0 min 0 W/m 22,5 km/h (4 Bft) 100,00 %
13.03.2020 03:24 5,8 C 5,0 C 5,0 C 85 % 1012,8 hPa 0,0 l/m 0 min 0 min 0 W/m 19,3 km/h (3 Bft) 100,00 %
13.03.2020 03:26 5,8 C 5,0 C 5,0 C 85 % 1012,9 hPa 0,0 l/m 0 min 0 min 0 W/m 25,7 km/h (4 Bft) 100,00 %
13.03.2020 03:28 5,8 C 5,6 C 5,0 C 85 % 1012,8 hPa 0,0 l/m 0 min 0 min 0 W/m 22,5 km/h (4 Bft) 100,00 %
13.03.2020 03:30 5,8 C 5,6 C 5,0 C 85 % 1012,9 hPa 0,0 l/m 0 min 0 min 0 W/m 19,3 km/h (3 Bft) 100,00 %
13.03.2020 03:32 5,9 C 5,6 C 5,0 C 85 % 1013,1 hPa 0,0 l/m 0 min 0 min 0 W/m 32,2 km/h (5 Bft) 100,00 %
13.03.2020 03:34 5,9 C 5,6 C 5,0 C 85 % 1012,9 hPa 0,0 l/m 0 min 0 min 0 W/m 41,8 km/h (6 Bft) 100,00 %
13.03.2020 03:36 5,9 C 5,6 C 5,0 C 85 % 1013,1 hPa 0,0 l/m 0 min 0 min 0 W/m 22,5 km/h (4 Bft) 100,00 %
13.03.2020 03:38 5,9 C 5,6 C 5,0 C 85 % 1013,0 hPa 0,0 l/m 0 min 0 min 0 W/m 16,1 km/h (3 Bft) 100,00 %
13.03.2020 03:40 5,9 C 5,6 C 5,0 C 85 % 1013,2 hPa 0,0 l/m 0 min 0 min 0 W/m 6,4 km/h (2 Bft) 100,00 %
13.03.2020 03:42 5,9 C 5,6 C 5,0 C 85 % 1013,1 hPa 0,0 l/m 0 min 0 min 0 W/m 12,9 km/h (3 Bft) 100,00 %
13.03.2020 03:44 5,9 C 5,6 C 5,0 C 85 % 1013,0 hPa 0,0 l/m 0 min 0 min 0 W/m 16,1 km/h (3 Bft) 100,00 %
13.03.2020 03:46 5,9 C 5,6 C 5,0 C 85 % 1013,0 hPa 0,0 l/m 0 min 0 min 0 W/m 29,0 km/h (5 Bft) 100,00 %
13.03.2020 03:48 5,9 C 5,6 C 5,0 C 85 % 1013,0 hPa 0,0 l/m 0 min 0 min 0 W/m 22,5 km/h (4 Bft) 100,00 %
13.03.2020 03:50 5,9 C 5,6 C 5,0 C 85 % 1013,1 hPa 0,0 l/m 0 min 0 min 0 W/m 29,0 km/h (5 Bft) 100,00 %
13.03.2020 03:52 5,9 C 5,6 C 5,0 C 85 % 1013,1 hPa 0,0 l/m 0 min 0 min 0 W/m 19,3 km/h (3 Bft) 100,00 %
13.03.2020 03:54 6,0 C 5,6 C 5,0 C 85 % 1013,2 hPa 0,0 l/m 0 min 0 min 0 W/m 16,1 km/h (3 Bft) 100,00 %
13.03.2020 03:56 6,0 C 5,6 C 5,0 C 85 % 1013,2 hPa 0,0 l/m 0 min 0 min 0 W/m 12,9 km/h (3 Bft) 100,00 %
13.03.2020 03:58 6,0 C 5,6 C 5,0 C 85 % 1013,1 hPa 0,0 l/m 0 min 0 min 0 W/m 35,4 km/h (5 Bft) 100,00 %
13.03.2020 04:00 6,0 C 5,0 C 5,0 C 85 % 1013,0 hPa 0,0 l/m 0 min 0 min 0 W/m 9,7 km/h (2 Bft) 100,00 %
13.03.2020 04:05 5,9 C 5,0 C 4,4 C 85 % 1013,1 hPa 0,0 l/m 0 min 0 min 0 W/m 32,2 km/h (5 Bft) 100,00 %
13.03.2020 04:06 5,9 C 5,0 C 4,4 C 85 % 1013,1 hPa 0,0 l/m 0 min 0 min 0 W/m 12,9 km/h (3 Bft) 100,00 %
13.03.2020 04:08 5,9 C 5,0 C 4,4 C 85 % 1013,0 hPa 0,0 l/m 0 min 0 min 0 W/m 19,3 km/h (3 Bft) 100,00 %
13.03.2020 04:10 5,9 C 5,0 C 4,4 C 85 % 1013,0 hPa 0,0 l/m 0 min 0 min 0 W/m 29,0 km/h (5 Bft) 100,00 %
13.03.2020 04:12 5,9 C 5,0 C 4,4 C 85 % 1013,0 hPa 0,0 l/m 0 min 0 min 0 W/m 32,2 km/h (5 Bft) 97,87 %
13.03.2020 04:14 5,9 C 5,6 C 5,0 C 85 % 1013,0 hPa 0,0 l/m 0 min 0 min 0 W/m 35,4 km/h (5 Bft) 100,00 %
13.03.2020 04:16 5,9 C 5,6 C 5,0 C 85 % 1012,9 hPa 0,0 l/m 0 min 0 min 0 W/m 16,1 km/h (3 Bft) 100,00 %
13.03.2020 04:18 5,9 C 5,6 C 5,0 C 85 % 1013,1 hPa 0,0 l/m 0 min 0 min 0 W/m 38,6 km/h (5 Bft) 100,00 %
13.03.2020 04:20 5,9 C 5,6 C 5,0 C 85 % 1013,0 hPa 0,0 l/m 0 min 0 min 0 W/m 22,5 km/h (4 Bft) 100,00 %
13.03.2020 04:22 5,9 C 5,6 C 5,0 C 85 % 1013,0 hPa 0,0 l/m 0 min 0 min 0 W/m 16,1 km/h (3 Bft) 100,00 %
13.03.2020 04:24 6,0 C 5,6 C 5,0 C 85 % 1012,9 hPa 0,0 l/m 0 min 0 min 0 W/m 19,3 km/h (3 Bft) 100,00 %
13.03.2020 04:26 6,0 C 5,6 C 5,0 C 85 % 1013,0 hPa 0,0 l/m 0 min 0 min 0 W/m 29,0 km/h (5 Bft) 97,83 %
13.03.2020 04:28 6,0 C 5,6 C 5,0 C 85 % 1013,0 hPa 0,0 l/m 0 min 0 min 0 W/m 38,6 km/h (5 Bft) 97,87 %
13.03.2020 04:30 6,0 C 5,6 C 5,0 C 85 % 1013,0 hPa 0,0 l/m 0 min 0 min 0 W/m 22,5 km/h (4 Bft) 100,00 %
13.03.2020 04:32 6,0 C 5,6 C 5,0 C 85 % 1013,0 hPa 0,0 l/m 0 min 0 min 0 W/m 35,4 km/h (5 Bft) 100,00 %
13.03.2020 04:34 6,1 C 5,6 C 5,0 C 85 % 1013,0 hPa 0,0 l/m 0 min 0 min 0 W/m 19,3 km/h (3 Bft) 100,00 %
13.03.2020 04:36 6,1 C 5,6 C 5,0 C 85 % 1013,0 hPa 0,0 l/m 0 min 0 min 0 W/m 25,7 km/h (4 Bft) 100,00 %
13.03.2020 04:38 6,1 C 5,6 C 5,0 C 85 % 1013,1 hPa 0,0 l/m 0 min 0 min 0 W/m 25,7 km/h (4 Bft) 100,00 %
13.03.2020 04:40 6,1 C 5,6 C 5,0 C 84 % 1013,0 hPa 0,0 l/m 0 min 0 min 0 W/m 35,4 km/h (5 Bft) 97,87 %
13.03.2020 04:42 6,1 C 5,6 C 5,0 C 84 % 1013,0 hPa 0,0 l/m 0 min 0 min 0 W/m 16,1 km/h (3 Bft) 100,00 %
13.03.2020 04:44 6,1 C 5,6 C 5,0 C 84 % 1013,0 hPa 0,0 l/m 0 min 0 min 0 W/m 16,1 km/h (3 Bft) 100,00 %
13.03.2020 04:46 6,1 C 5,6 C 5,0 C 84 % 1013,1 hPa 0,0 l/m 0 min 0 min 0 W/m 12,9 km/h (3 Bft) 100,00 %
13.03.2020 04:48 6,1 C 5,6 C 5,0 C 84 % 1013,1 hPa 0,0 l/m 0 min 0 min 0 W/m 3,2 km/h (1 Bft) 95,74 %
13.03.2020 04:50 6,2 C 5,6 C 5,0 C 85 % 1013,1 hPa 0,0 l/m 0 min 0 min 0 W/m 16,1 km/h (3 Bft) 95,65 %
13.03.2020 04:52 6,2 C 5,6 C 5,0 C 85 % 1013,0 hPa 0,0 l/m 0 min 0 min 0 W/m 22,5 km/h (4 Bft) 95,74 %
13.03.2020 04:54 6,2 C 5,6 C 5,0 C 85 % 1013,1 hPa 0,0 l/m 0 min 0 min 0 W/m 0,0 km/h (0 Bft) 97,87 %
13.03.2020 04:56 6,2 C 5,6 C 5,0 C 85 % 1013,2 hPa 0,0 l/m 0 min 0 min 0 W/m 32,2 km/h (5 Bft) 97,87 %
13.03.2020 04:58 6,2 C 5,6 C 5,0 C 85 % 1013,1 hPa 0,0 l/m 0 min 0 min 0 W/m 16,1 km/h (3 Bft) 95,74 %
13.03.2020 05:00 6,2 C 5,6 C 5,0 C 85 % 1013,1 hPa 0,0 l/m 0 min 0 min 0 W/m 29,0 km/h (5 Bft) 93,62 %
13.03.2020 05:02 6,2 C 5,6 C 5,0 C 85 % 1013,1 hPa 0,0 l/m 0 min 0 min 0 W/m 29,0 km/h (5 Bft) 93,48 %
13.03.2020 05:04 6,2 C 5,6 C 5,0 C 85 % 1013,0 hPa 0,0 l/m 0 min 0 min 0 W/m 6,4 km/h (2 Bft) 97,87 %
13.03.2020 05:06 6,2 C 5,6 C 5,0 C 85 % 1013,0 hPa 0,0 l/m 0 min 0 min 0 W/m 25,7 km/h (4 Bft) 95,74 %
13.03.2020 05:08 6,2 C 5,6 C 5,0 C 85 % 1013,1 hPa 0,0 l/m 0 min 0 min 0 W/m 19,3 km/h (3 Bft) 95,74 %
13.03.2020 05:10 6,2 C 5,6 C 5,0 C 85 % 1013,0 hPa 0,0 l/m 0 min 0 min 0 W/m 16,1 km/h (3 Bft) 95,12 %
13.03.2020 05:12 6,2 C 5,6 C 5,0 C 85 % 1012,9 hPa 0,0 l/m 0 min 0 min 0 W/m 22,5 km/h (4 Bft) 95,74 %
13.03.2020 05:14 6,2 C 5,6 C 5,0 C 85 % 1013,0 hPa 0,0 l/m 0 min 0 min 0 W/m 6,4 km/h (2 Bft) 97,87 %
13.03.2020 05:16 6,2 C 5,6 C 5,0 C 85 % 1013,0 hPa 0,0 l/m 0 min 0 min 0 W/m 12,9 km/h (3 Bft) 95,74 %
13.03.2020 05:18 6,2 C 5,6 C 5,0 C 85 % 1013,1 hPa 0,0 l/m 0 min 0 min 0 W/m 35,4 km/h (5 Bft) 95,83 %
13.03.2020 05:20 6,2 C 5,6 C 5,0 C 84 % 1012,9 hPa 0,0 l/m 0 min 0 min 0 W/m 6,4 km/h (2 Bft) 95,65 %
13.03.2020 05:22 6,2 C 5,6 C 5,0 C 84 % 1012,9 hPa 0,0 l/m 0 min 0 min 0 W/m 41,8 km/h (6 Bft) 93,88 %
13.03.2020 05:24 6,2 C 5,6 C 5,0 C 84 % 1012,9 hPa 0,0 l/m 0 min 0 min 0 W/m 16,1 km/h (3 Bft) 93,62 %
13.03.2020 05:26 6,2 C 5,6 C 5,0 C 84 % 1012,9 hPa 0,0 l/m 0 min 0 min 0 W/m 19,3 km/h (3 Bft) 95,74 %
13.03.2020 05:28 6,2 C 5,6 C 5,0 C 84 % 1013,1 hPa 0,0 l/m 0 min 0 min 0 W/m 22,5 km/h (4 Bft) 95,83 %
13.03.2020 05:30 6,2 C 5,6 C 5,0 C 84 % 1013,0 hPa 0,0 l/m 0 min 0 min 0 W/m 19,3 km/h (3 Bft) 95,74 %
13.03.2020 05:32 6,2 C 5,6 C 5,0 C 84 % 1013,0 hPa 0,0 l/m 0 min 0 min 0 W/m 22,5 km/h (4 Bft) 95,65 %
13.03.2020 05:34 6,2 C 5,6 C 5,0 C 84 % 1013,1 hPa 0,0 l/m 0 min 0 min 0 W/m 16,1 km/h (3 Bft) 97,92 %
13.03.2020 05:36 6,2 C 5,6 C 5,0 C 84 % 1013,0 hPa 0,0 l/m 0 min 0 min 0 W/m 3,2 km/h (1 Bft) 95,74 %
13.03.2020 05:38 6,2 C 5,6 C 5,0 C 84 % 1012,9 hPa 0,0 l/m 0 min 0 min 0 W/m 25,7 km/h (4 Bft) 95,74 %
13.03.2020 05:40 6,2 C 5,6 C 5,0 C 84 % 1012,8 hPa 0,0 l/m 0 min 0 min 0 W/m 32,2 km/h (5 Bft) 95,74 %
13.03.2020 05:42 6,2 C 5,6 C 5,0 C 84 % 1012,9 hPa 0,0 l/m 0 min 0 min 0 W/m 25,7 km/h (4 Bft) 97,83 %
13.03.2020 05:44 6,2 C 5,6 C 5,0 C 84 % 1013,1 hPa 0,0 l/m 0 min 0 min 0 W/m 25,7 km/h (4 Bft) 97,92 %
13.03.2020 05:46 6,2 C 5,6 C 5,0 C 84 % 1013,0 hPa 0,0 l/m 0 min 0 min 0 W/m 19,3 km/h (3 Bft) 95,74 %
13.03.2020 05:48 6,2 C 5,0 C 5,0 C 84 % 1013,1 hPa 0,0 l/m 0 min 2 min 0 W/m 0,0 km/h (0 Bft) 100,00 %
13.03.2020 05:50 6,2 C 5,0 C 5,0 C 85 % 1013,4 hPa 0,0 l/m 0 min 2 min 0 W/m 22,5 km/h (4 Bft) 100,00 %
13.03.2020 05:52 6,2 C 5,0 C 5,0 C 85 % 1013,1 hPa 0,0 l/m 0 min 2 min 0 W/m 22,5 km/h (4 Bft) 100,00 %
13.03.2020 05:54 6,2 C 5,6 C 5,0 C 85 % 1013,1 hPa 0,0 l/m 0 min 0 min 0 W/m 19,3 km/h (3 Bft) 100,00 %
13.03.2020 05:56 6,2 C 5,6 C 5,0 C 85 % 1013,2 hPa 0,0 l/m 0 min 0 min 0 W/m 19,3 km/h (3 Bft) 97,87 %
13.03.2020 05:58 6,2 C 5,6 C 5,0 C 85 % 1013,1 hPa 0,0 l/m 0 min 0 min 0 W/m 6,4 km/h (2 Bft) 97,83 %
13.03.2020 06:00 6,2 C 5,6 C 5,0 C 85 % 1013,1 hPa 0,0 l/m 0 min 0 min 0 W/m 29,0 km/h (5 Bft) 97,87 %
13.03.2020 06:02 6,2 C 5,6 C 5,0 C 85 % 1013,0 hPa 0,0 l/m 0 min 0 min 0 W/m 29,0 km/h (5 Bft) 97,87 %
13.03.2020 06:04 6,2 C 5,6 C 5,0 C 85 % 1013,0 hPa 0,0 l/m 0 min 0 min 0 W/m 35,4 km/h (5 Bft) 100,00 %
13.03.2020 06:08 6,2 C 5,6 C 5,0 C 85 % 1013,2 hPa 0,0 l/m 0 min 0 min 0 W/m 41,8 km/h (6 Bft) 97,22 %
13.03.2020 06:10 6,2 C 5,6 C 5,0 C 85 % 1013,2 hPa 0,0 l/m 0 min 0 min 0 W/m 9,7 km/h (2 Bft) 100,00 %
13.03.2020 06:12 6,2 C 5,6 C 5,0 C 85 % 1013,3 hPa 0,0 l/m 0 min 0 min 0 W/m 16,1 km/h (3 Bft) 97,87 %
13.03.2020 06:14 6,2 C 5,6 C 5,0 C 85 % 1013,3 hPa 0,0 l/m 0 min 0 min 0 W/m 0,0 km/h (0 Bft) 97,87 %
13.03.2020 06:16 6,2 C 5,6 C 5,0 C 85 % 1013,3 hPa 0,0 l/m 0 min 0 min 0 W/m 38,6 km/h (5 Bft) 97,92 %
13.03.2020 06:18 6,2 C 5,6 C 5,0 C 85 % 1013,3 hPa 0,0 l/m 0 min 0 min 0 W/m 22,5 km/h (4 Bft) 95,65 %
13.03.2020 06:20 6,2 C 5,6 C 5,0 C 85 % 1013,3 hPa 0,0 l/m 0 min 0 min 0 W/m 22,5 km/h (4 Bft) 95,83 %
13.03.2020 06:22 6,2 C 5,6 C 5,0 C 85 % 1013,2 hPa 0,0 l/m 0 min 0 min 0 W/m 3,2 km/h (1 Bft) 97,87 %
13.03.2020 06:24 6,2 C 5,6 C 5,0 C 85 % 1013,2 hPa 0,0 l/m 0 min 0 min 0 W/m 3,2 km/h (1 Bft) 97,87 %
13.03.2020 06:26 6,2 C 5,6 C 5,0 C 85 % 1013,2 hPa 0,0 l/m 0 min 0 min 0 W/m 16,1 km/h (3 Bft) 97,87 %
13.03.2020 06:28 6,2 C 5,6 C 5,0 C 85 % 1013,2 hPa 0,0 l/m 0 min 0 min 0 W/m 19,3 km/h (3 Bft) 97,87 %
13.03.2020 06:30 6,2 C 5,6 C 5,0 C 85 % 1013,3 hPa 0,0 l/m 0 min 0 min 0 W/m 19,3 km/h (3 Bft) 97,87 %
13.03.2020 06:32 6,2 C 5,6 C 5,0 C 85 % 1013,3 hPa 0,0 l/m 0 min 0 min 0 W/m 12,9 km/h (3 Bft) 97,87 %
13.03.2020 06:34 6,2 C 5,6 C 5,0 C 85 % 1013,5 hPa 0,0 l/m 0 min 0 min 0 W/m 25,7 km/h (4 Bft) 97,83 %
13.03.2020 06:36 6,2 C 5,6 C 5,0 C 85 % 1013,5 hPa 0,0 l/m 0 min 0 min 0 W/m 12,9 km/h (3 Bft) 97,87 %
13.03.2020 06:38 6,2 C 5,6 C 5,0 C 85 % 1013,4 hPa 0,0 l/m 0 min 0 min 0 W/m 16,1 km/h (3 Bft) 97,87 %
13.03.2020 06:40 6,2 C 5,6 C 5,0 C 85 % 1013,4 hPa 0,0 l/m 0 min 0 min 0 W/m 3,2 km/h (1 Bft) 100,00 %
13.03.2020 06:42 6,2 C 5,6 C 5,0 C 85 % 1013,5 hPa 0,0 l/m 0 min 0 min 0 W/m 32,2 km/h (5 Bft) 97,87 %
13.03.2020 06:44 6,2 C 5,6 C 5,0 C 85 % 1013,6 hPa 0,0 l/m 0 min 0 min 0 W/m 22,5 km/h (4 Bft) 97,87 %
13.03.2020 06:46 6,2 C 5,6 C 5,0 C 85 % 1013,5 hPa 0,0 l/m 0 min 0 min 0 W/m 41,8 km/h (6 Bft) 100,00 %
13.03.2020 06:48 6,2 C 5,6 C 5,0 C 85 % 1013,5 hPa 0,0 l/m 0 min 0 min 0 W/m 16,1 km/h (3 Bft) 100,00 %
13.03.2020 06:50 6,3 C 5,6 C 5,0 C 85 % 1013,6 hPa 0,0 l/m 0 min 0 min 0 W/m 25,7 km/h (4 Bft) 100,00 %
13.03.2020 06:52 6,3 C 5,6 C 5,0 C 85 % 1013,6 hPa 0,0 l/m 0 min 0 min 0 W/m 38,6 km/h (5 Bft) 100,00 %
13.03.2020 06:54 6,3 C 5,6 C 5,0 C 85 % 1013,6 hPa 0,0 l/m 0 min 0 min 0 W/m 9,7 km/h (2 Bft) 100,00 %
13.03.2020 06:56 6,3 C 5,6 C 5,0 C 85 % 1013,6 hPa 0,0 l/m 0 min 0 min 0 W/m 12,9 km/h (3 Bft) 97,87 %
13.03.2020 06:58 6,3 C 5,6 C 5,0 C 85 % 1013,7 hPa 0,0 l/m 0 min 0 min 0 W/m 19,3 km/h (3 Bft) 96,00 %
13.03.2020 07:00 6,3 C 6,1 C 5,0 C 85 % 1013,7 hPa 0,0 l/m 0 min 0 min 0 W/m 22,5 km/h (4 Bft) 100,00 %
13.03.2020 07:02 6,4 C 6,1 C 5,6 C 84 % 1013,8 hPa 0,0 l/m 0 min 0 min 1 W/m 19,3 km/h (3 Bft) 100,00 %
13.03.2020 07:04 6,4 C 5,6 C 5,0 C 84 % 1013,7 hPa 0,0 l/m 0 min 0 min 6 W/m 29,0 km/h (5 Bft) 100,00 %
13.03.2020 07:06 6,4 C 5,6 C 5,0 C 84 % 1013,8 hPa 0,0 l/m 0 min 0 min 8 W/m 22,5 km/h (4 Bft) 100,00 %
13.03.2020 07:08 6,4 C 6,1 C 5,6 C 84 % 1013,8 hPa 0,0 l/m 0 min 0 min 10 W/m 29,0 km/h (5 Bft) 100,00 %
13.03.2020 07:10 6,4 C 6,1 C 5,6 C 84 % 1013,9 hPa 0,0 l/m 0 min 0 min 7 W/m 19,3 km/h (3 Bft) 100,00 %
13.03.2020 07:12 6,4 C 6,1 C 5,6 C 84 % 1014,0 hPa 0,0 l/m 0 min 0 min 5 W/m 16,1 km/h (3 Bft) 100,00 %
13.03.2020 07:14 6,5 C 6,1 C 5,6 C 84 % 1013,9 hPa 0,0 l/m 0 min 0 min 5 W/m 0,0 km/h (0 Bft) 97,92 %
13.03.2020 07:16 6,5 C 6,1 C 5,6 C 84 % 1014,0 hPa 0,0 l/m 0 min 0 min 5 W/m 16,1 km/h (3 Bft) 95,65 %
13.03.2020 07:18 6,5 C 6,1 C 5,6 C 84 % 1014,0 hPa 0,0 l/m 0 min 0 min 5 W/m 12,9 km/h (3 Bft) 100,00 %
13.03.2020 07:20 6,5 C 6,1 C 5,6 C 84 % 1014,1 hPa 0,0 l/m 0 min 0 min 6 W/m 16,1 km/h (3 Bft) 100,00 %
13.03.2020 07:22 6,5 C 6,1 C 5,6 C 84 % 1014,1 hPa 0,0 l/m 0 min 0 min 10 W/m 9,7 km/h (2 Bft) 100,00 %
13.03.2020 07:24 6,5 C 6,1 C 5,6 C 84 % 1014,0 hPa 0,0 l/m 0 min 0 min 10 W/m 16,1 km/h (3 Bft) 97,92 %
13.03.2020 07:26 6,5 C 6,1 C 5,6 C 84 % 1014,1 hPa 0,0 l/m 0 min 0 min 11 W/m 19,3 km/h (3 Bft) 97,87 %
13.03.2020 07:28 6,6 C 6,1 C 5,6 C 84 % 1014,1 hPa 0,0 l/m 0 min 0 min 15 W/m 19,3 km/h (3 Bft) 100,00 %
13.03.2020 07:30 6,6 C 6,1 C 5,6 C 84 % 1014,1 hPa 0,0 l/m 0 min 0 min 13 W/m 19,3 km/h (3 Bft) 100,00 %
13.03.2020 07:32 6,6 C 6,1 C 5,6 C 84 % 1014,1 hPa 0,0 l/m 0 min 0 min 12 W/m 6,4 km/h (2 Bft) 95,65 %
13.03.2020 07:34 6,6 C 6,1 C 5,6 C 84 % 1014,3 hPa 0,0 l/m 0 min 0 min 11 W/m 6,4 km/h (2 Bft) 95,74 %
13.03.2020 07:36 6,6 C 6,1 C 5,6 C 84 % 1014,3 hPa 0,0 l/m 0 min 0 min 14 W/m 12,9 km/h (3 Bft) 95,74 %
13.03.2020 07:38 6,6 C 6,1 C 5,6 C 84 % 1014,4 hPa 0,0 l/m 0 min 2 min 16 W/m 0,0 km/h (0 Bft) 93,62 %
13.03.2020 07:40 6,6 C 6,1 C 5,6 C 84 % 1014,3 hPa 0,0 l/m 0 min 0 min 25 W/m 16,1 km/h (3 Bft) 95,74 %
13.03.2020 07:42 6,6 C 6,1 C 5,6 C 84 % 1014,4 hPa 0,0 l/m 0 min 0 min 26 W/m 19,3 km/h (3 Bft) 95,74 %
13.03.2020 07:44 6,6 C 6,1 C 5,6 C 84 % 1014,5 hPa 0,0 l/m 0 min 0 min 33 W/m 12,9 km/h (3 Bft) 95,65 %
13.03.2020 07:46 6,6 C 6,1 C 5,6 C 84 % 1014,4 hPa 0,0 l/m 0 min 0 min 30 W/m 16,1 km/h (3 Bft) 91,49 %
13.03.2020 07:48 6,6 C 6,1 C 5,6 C 84 % 1014,4 hPa 0,0 l/m 0 min 0 min 25 W/m 9,7 km/h (2 Bft) 95,74 %
13.03.2020 07:50 6,6 C 6,1 C 5,6 C 84 % 1014,5 hPa 0,0 l/m 0 min 0 min 24 W/m 9,7 km/h (2 Bft) 95,74 %
13.03.2020 07:52 6,6 C 6,1 C 5,6 C 84 % 1014,5 hPa 0,0 l/m 0 min 0 min 30 W/m 25,7 km/h (4 Bft) 95,12 %
13.03.2020 07:54 6,6 C 6,1 C 5,6 C 84 % 1014,6 hPa 0,0 l/m 0 min 0 min 24 W/m 22,5 km/h (4 Bft) 95,74 %
13.03.2020 07:56 6,7 C 6,1 C 5,6 C 83 % 1014,6 hPa 0,0 l/m 0 min 0 min 20 W/m 3,2 km/h (1 Bft) 93,75 %
13.03.2020 07:58 6,7 C 6,1 C 5,6 C 84 % 1014,6 hPa 0,0 l/m 0 min 0 min 29 W/m 9,7 km/h (2 Bft) 93,62 %
13.03.2020 08:00 6,7 C 6,1 C 5,6 C 84 % 1014,7 hPa 0,0 l/m 0 min 0 min 49 W/m 9,7 km/h (2 Bft) 95,83 %
13.03.2020 08:02 6,7 C 6,1 C 5,6 C 84 % 1014,7 hPa 0,0 l/m 0 min 0 min 40 W/m 25,7 km/h (4 Bft) 95,74 %
13.03.2020 08:04 6,7 C 6,1 C 5,6 C 83 % 1014,8 hPa 0,0 l/m 0 min 0 min 49 W/m 25,7 km/h (4 Bft) 96,00 %
13.03.2020 08:06 6,7 C 6,7 C 5,6 C 83 % 1014,8 hPa 0,0 l/m 0 min 0 min 52 W/m 19,3 km/h (3 Bft) 95,65 %
13.03.2020 08:08 6,7 C 6,7 C 5,6 C 83 % 1015,0 hPa 0,0 l/m 0 min 0 min 64 W/m 16,1 km/h (3 Bft) 97,87 %
13.03.2020 08:10 6,7 C 6,7 C 6,1 C 83 % 1014,9 hPa 0,0 l/m 0 min 0 min 87 W/m 29,0 km/h (5 Bft) 95,24 %
13.03.2020 08:12 6,8 C 6,7 C 6,1 C 83 % 1015,0 hPa 0,0 l/m 0 min 0 min 79 W/m 9,7 km/h (2 Bft) 95,74 %
13.03.2020 08:14 6,8 C 6,7 C 6,1 C 83 % 1015,0 hPa 0,0 l/m 0 min 0 min 84 W/m 19,3 km/h (3 Bft) 95,74 %
13.03.2020 08:16 6,8 C 6,7 C 6,1 C 83 % 1015,1 hPa 0,0 l/m 0 min 0 min 76 W/m 22,5 km/h (4 Bft) 97,87 %
13.03.2020 08:18 6,8 C 6,7 C 6,1 C 83 % 1015,4 hPa 0,0 l/m 0 min 0 min 79 W/m 29,0 km/h (5 Bft) 97,92 %
13.03.2020 08:20 6,9 C 6,7 C 6,1 C 83 % 1015,2 hPa 0,0 l/m 0 min 0 min 70 W/m 3,2 km/h (1 Bft) 100,00 %
13.03.2020 08:22 6,9 C 6,7 C 6,1 C 83 % 1015,2 hPa 0,0 l/m 0 min 0 min 69 W/m 3,2 km/h (1 Bft) 97,92 %
13.03.2020 08:24 6,9 C 6,7 C 6,1 C 82 % 1015,1 hPa 0,0 l/m 0 min 0 min 74 W/m 0,0 km/h (0 Bft) 100,00 %
13.03.2020 08:26 6,9 C 6,7 C 6,1 C 82 % 1015,2 hPa 0,0 l/m 0 min 0 min 62 W/m 0,0 km/h (0 Bft) 100,00 %
13.03.2020 08:28 6,9 C 6,7 C 6,1 C 83 % 1015,3 hPa 0,0 l/m 0 min 0 min 91 W/m 0,0 km/h (0 Bft) 97,92 %
13.03.2020 08:30 6,9 C 6,7 C 6,1 C 83 % 1015,3 hPa 0,0 l/m 0 min 0 min 114 W/m 0,0 km/h (0 Bft) 100,00 %
13.03.2020 08:32 6,9 C 6,7 C 6,1 C 83 % 1015,4 hPa 0,0 l/m 0 min 0 min 91 W/m 12,9 km/h (3 Bft) 100,00 %
13.03.2020 08:34 7,0 C 6,7 C 6,1 C 83 % 1015,3 hPa 0,0 l/m 0 min 0 min 99 W/m 22,5 km/h (4 Bft) 100,00 %
13.03.2020 08:36 7,0 C 6,7 C 6,1 C 82 % 1015,6 hPa 0,0 l/m 0 min 0 min 89 W/m 41,8 km/h (6 Bft) 100,00 %
13.03.2020 08:38 7,0 C 6,7 C 6,1 C 82 % 1015,4 hPa 0,0 l/m 0 min 0 min 73 W/m 16,1 km/h (3 Bft) 100,00 %
13.03.2020 08:40 7,0 C 6,7 C 6,1 C 82 % 1015,4 hPa 0,0 l/m 0 min 0 min 58 W/m 25,7 km/h (4 Bft) 100,00 %
13.03.2020 08:42 7,0 C 6,7 C 6,1 C 82 % 1015,5 hPa 0,0 l/m 0 min 0 min 82 W/m 0,0 km/h (0 Bft) 100,00 %
13.03.2020 08:44 7,0 C 7,2 C 6,1 C 82 % 1015,6 hPa 0,0 l/m 0 min 0 min 122 W/m 0,0 km/h (0 Bft) 100,00 %
13.03.2020 08:46 7,0 C 7,2 C 6,1 C 83 % 1015,6 hPa 0,0 l/m 0 min 0 min 134 W/m 38,6 km/h (5 Bft) 100,00 %
13.03.2020 08:48 7,1 C 7,2 C 6,7 C 82 % 1015,7 hPa 0,0 l/m 0 min 0 min 122 W/m 19,3 km/h (3 Bft) 100,00 %
13.03.2020 08:50 7,1 C 7,2 C 6,7 C 82 % 1015,7 hPa 0,0 l/m 0 min 0 min 112 W/m 19,3 km/h (3 Bft) 100,00 %
13.03.2020 08:52 7,1 C 7,2 C 6,7 C 82 % 1015,8 hPa 0,0 l/m 0 min 0 min 101 W/m 0,0 km/h (0 Bft) 100,00 %
13.03.2020 08:54 7,1 C 7,2 C 6,1 C 82 % 1015,8 hPa 0,0 l/m 0 min 0 min 96 W/m 6,4 km/h (2 Bft) 97,62 %
13.03.2020 08:56 7,1 C 7,2 C 6,1 C 82 % 1015,9 hPa 0,0 l/m 0 min 0 min 70 W/m 12,9 km/h (3 Bft) 97,92 %
13.03.2020 08:58 7,1 C 7,2 C 6,1 C 82 % 1015,8 hPa 0,0 l/m 0 min 0 min 118 W/m 29,0 km/h (5 Bft) 100,00 %
13.03.2020 09:00 7,1 C 7,2 C 6,7 C 82 % 1015,8 hPa 0,0 l/m 2 min 0 min 196 W/m 19,3 km/h (3 Bft) 100,00 %
13.03.2020 09:02 7,2 C 7,8 C 6,7 C 82 % 1015,9 hPa 0,0 l/m 2 min 0 min 219 W/m 19,3 km/h (3 Bft) 97,87 %
13.03.2020 09:04 7,2 C 8,9 C 6,7 C 82 % 1015,9 hPa 0,0 l/m 2 min 0 min 249 W/m 19,3 km/h (3 Bft) 100,00 %
13.03.2020 09:06 7,2 C 8,3 C 6,7 C 82 % 1015,9 hPa 0,0 l/m 2 min 0 min 182 W/m 12,9 km/h (3 Bft) 100,00 %
13.03.2020 09:08 7,3 C 9,4 C 6,7 C 82 % 1015,9 hPa 0,0 l/m 2 min 0 min 181 W/m 6,4 km/h (2 Bft) 100,00 %
13.03.2020 09:10 7,3 C 9,4 C 6,7 C 82 % 1015,9 hPa 0,0 l/m 2 min 0 min 264 W/m 12,9 km/h (3 Bft) 100,00 %
13.03.2020 09:12 7,4 C 9,4 C 7,2 C 82 % 1015,9 hPa 0,0 l/m 2 min 0 min 224 W/m 16,1 km/h (3 Bft) 97,87 %
13.03.2020 09:14 7,4 C 8,3 C 7,2 C 81 % 1015,9 hPa 0,0 l/m 2 min 0 min 187 W/m 25,7 km/h (4 Bft) 95,74 %
13.03.2020 09:16 7,4 C 7,8 C 6,7 C 81 % 1016,0 hPa 0,0 l/m 0 min 0 min 81 W/m 12,9 km/h (3 Bft) 97,87 %
13.03.2020 09:18 7,4 C 7,2 C 6,7 C 81 % 1016,0 hPa 0,0 l/m 0 min 0 min 112 W/m 9,7 km/h (2 Bft) 97,92 %
13.03.2020 09:20 7,5 C 7,2 C 6,7 C 81 % 1016,0 hPa 0,0 l/m 0 min 0 min 129 W/m 32,2 km/h (5 Bft) 97,87 %
13.03.2020 09:22 7,5 C 7,2 C 6,7 C 81 % 1016,1 hPa 0,0 l/m 0 min 0 min 132 W/m 12,9 km/h (3 Bft) 97,96 %
13.03.2020 09:24 7,5 C 7,2 C 6,7 C 81 % 1016,1 hPa 0,0 l/m 0 min 0 min 109 W/m 16,1 km/h (3 Bft) 97,87 %
13.03.2020 09:26 7,5 C 7,2 C 6,7 C 81 % 1016,1 hPa 0,0 l/m 0 min 0 min 100 W/m 16,1 km/h (3 Bft) 97,87 %
13.03.2020 09:28 7,5 C 7,2 C 6,7 C 81 % 1016,1 hPa 0,0 l/m 0 min 0 min 93 W/m 16,1 km/h (3 Bft) 97,87 %
13.03.2020 09:30 7,5 C 7,2 C 6,7 C 80 % 1016,1 hPa 0,0 l/m 0 min 0 min 77 W/m 19,3 km/h (3 Bft) 97,87 %
13.03.2020 09:32 7,5 C 7,2 C 6,7 C 80 % 1016,1 hPa 0,0 l/m 0 min 0 min 89 W/m 25,7 km/h (4 Bft) 97,87 %
13.03.2020 09:34 7,5 C 7,2 C 6,7 C 80 % 1016,3 hPa 0,0 l/m 0 min 0 min 74 W/m 12,9 km/h (3 Bft) 97,87 %
13.03.2020 09:36 7,5 C 7,2 C 6,7 C 80 % 1016,2 hPa 0,0 l/m 0 min 0 min 90 W/m 19,3 km/h (3 Bft) 97,87 %
13.03.2020 09:38 7,5 C 7,2 C 6,7 C 80 % 1016,3 hPa 0,0 l/m 0 min 0 min 92 W/m 35,4 km/h (5 Bft) 97,87 %
13.03.2020 09:40 7,5 C 7,2 C 6,7 C 80 % 1016,3 hPa 0,0 l/m 0 min 0 min 97 W/m 16,1 km/h (3 Bft) 97,83 %
13.03.2020 09:42 7,6 C 7,2 C 6,7 C 80 % 1016,2 hPa 0,0 l/m 0 min 0 min 73 W/m 12,9 km/h (3 Bft) 97,87 %
13.03.2020 09:44 7,5 C 7,2 C 6,7 C 80 % 1016,3 hPa 0,0 l/m 0 min 0 min 92 W/m 16,1 km/h (3 Bft) 97,87 %
13.03.2020 09:46 7,6 C 7,2 C 6,7 C 80 % 1016,4 hPa 0,0 l/m 0 min 0 min 113 W/m 12,9 km/h (3 Bft) 97,87 %
13.03.2020 09:48 7,6 C 7,8 C 6,7 C 80 % 1016,4 hPa 0,0 l/m 0 min 0 min 132 W/m 19,3 km/h (3 Bft) 95,12 %
13.03.2020 09:50 7,6 C 7,8 C 6,7 C 80 % 1016,3 hPa 0,0 l/m 0 min 0 min 160 W/m 25,7 km/h (4 Bft) 97,87 %
13.03.2020 09:52 7,6 C 7,8 C 6,7 C 80 % 1016,4 hPa 0,0 l/m 0 min 0 min 191 W/m 25,7 km/h (4 Bft) 94,74 %
13.03.2020 09:54 7,7 C 7,8 C 6,7 C 79 % 1016,4 hPa 0,0 l/m 0 min 0 min 119 W/m 22,5 km/h (4 Bft) 95,83 %
13.03.2020 09:56 7,7 C 7,8 C 6,7 C 79 % 1016,5 hPa 0,0 l/m 0 min 0 min 129 W/m 19,3 km/h (3 Bft) 95,24 %
13.03.2020 09:58 7,7 C 7,8 C 7,2 C 79 % 1016,5 hPa 0,0 l/m 0 min 0 min 152 W/m 25,7 km/h (4 Bft) 95,92 %
13.03.2020 10:00 7,7 C 7,8 C 7,2 C 79 % 1016,5 hPa 0,0 l/m 0 min 0 min 139 W/m 22,5 km/h (4 Bft) 97,92 %
13.03.2020 10:02 7,8 C 7,8 C 7,2 C 79 % 1016,4 hPa 0,0 l/m 0 min 0 min 130 W/m 19,3 km/h (3 Bft) 97,83 %
13.03.2020 10:04 7,8 C 7,8 C 7,2 C 79 % 1016,5 hPa 0,0 l/m 0 min 0 min 158 W/m 25,7 km/h (4 Bft) 100,00 %
13.03.2020 10:06 7,8 C 8,3 C 7,2 C 79 % 1016,4 hPa 0,0 l/m 0 min 0 min 209 W/m 16,1 km/h (3 Bft) 97,87 %
13.03.2020 10:08 7,8 C 8,3 C 7,2 C 79 % 1016,5 hPa 0,0 l/m 0 min 0 min 195 W/m 19,3 km/h (3 Bft) 93,62 %
13.03.2020 10:10 7,8 C 7,8 C 7,2 C 78 % 1016,5 hPa 0,0 l/m 0 min 0 min 117 W/m 25,7 km/h (4 Bft) 95,74 %
13.03.2020 10:12 7,9 C 7,8 C 7,2 C 78 % 1016,6 hPa 0,0 l/m 0 min 0 min 106 W/m 19,3 km/h (3 Bft) 97,87 %
13.03.2020 10:14 7,9 C 7,8 C 7,2 C 78 % 1016,7 hPa 0,0 l/m 0 min 0 min 105 W/m 16,1 km/h (3 Bft) 97,56 %
13.03.2020 10:16 7,9 C 7,8 C 7,2 C 78 % 1016,6 hPa 0,0 l/m 0 min 0 min 125 W/m 19,3 km/h (3 Bft) 95,74 %
13.03.2020 10:18 7,9 C 7,8 C 7,2 C 78 % 1016,8 hPa 0,0 l/m 0 min 0 min 168 W/m 22,5 km/h (4 Bft) 95,83 %
13.03.2020 10:20 7,9 C 8,3 C 7,8 C 78 % 1016,7 hPa 0,0 l/m 0 min 0 min 198 W/m 16,1 km/h (3 Bft) 93,62 %
13.03.2020 10:22 8,0 C 8,3 C 7,8 C 78 % 1016,7 hPa 0,0 l/m 2 min 0 min 254 W/m 22,5 km/h (4 Bft) 97,92 %
13.03.2020 10:24 8,1 C 8,9 C 7,8 C 78 % 1016,7 hPa 0,0 l/m 2 min 0 min 265 W/m 22,5 km/h (4 Bft) 97,92 %
13.03.2020 10:26 8,1 C 8,9 C 7,8 C 78 % 1016,7 hPa 0,0 l/m 0 min 0 min 190 W/m 16,1 km/h (3 Bft) 97,87 %
13.03.2020 10:28 8,2 C 8,3 C 7,8 C 77 % 1016,8 hPa 0,0 l/m 0 min 0 min 153 W/m 12,9 km/h (3 Bft) 97,92 %
13.03.2020 10:30 8,2 C 8,3 C 7,2 C 77 % 1016,7 hPa 0,0 l/m 0 min 0 min 124 W/m 19,3 km/h (3 Bft) 95,74 %
13.03.2020 10:32 8,2 C 8,3 C 7,2 C 77 % 1016,8 hPa 0,0 l/m 0 min 0 min 135 W/m 6,4 km/h (2 Bft) 93,62 %
13.03.2020 10:34 8,2 C 8,3 C 7,2 C 77 % 1016,8 hPa 0,0 l/m 0 min 0 min 145 W/m 16,1 km/h (3 Bft) 95,74 %
13.03.2020 10:36 8,2 C 8,3 C 7,8 C 77 % 1016,8 hPa 0,0 l/m 0 min 0 min 155 W/m 12,9 km/h (3 Bft) 95,74 %
13.03.2020 10:38 8,2 C 8,3 C 7,8 C 77 % 1016,7 hPa 0,0 l/m 0 min 0 min 146 W/m 0,0 km/h (0 Bft) 95,65 %
13.03.2020 10:40 8,2 C 8,3 C 7,2 C 77 % 1016,8 hPa 0,0 l/m 0 min 0 min 115 W/m 35,4 km/h (5 Bft) 95,74 %
13.03.2020 10:42 8,2 C 8,3 C 7,2 C 77 % 1016,9 hPa 0,0 l/m 0 min 0 min 118 W/m 19,3 km/h (3 Bft) 95,74 %
13.03.2020 10:44 8,2 C 8,3 C 7,8 C 77 % 1016,9 hPa 0,0 l/m 0 min 0 min 147 W/m 32,2 km/h (5 Bft) 95,74 %
13.03.2020 10:46 8,2 C 9,4 C 7,8 C 77 % 1017,0 hPa 0,0 l/m 0 min 0 min 204 W/m 19,3 km/h (3 Bft) 95,74 %
13.03.2020 10:48 8,3 C 9,4 C 7,8 C 77 % 1017,0 hPa 0,0 l/m 0 min 0 min 186 W/m 3,2 km/h (1 Bft) 95,65 %
13.03.2020 10:50 8,3 C 8,9 C 7,8 C 77 % 1016,9 hPa 0,0 l/m 0 min 0 min 129 W/m 9,7 km/h (2 Bft) 97,87 %
13.03.2020 10:52 8,3 C 8,3 C 7,8 C 76 % 1016,9 hPa 0,0 l/m 0 min 0 min 132 W/m 16,1 km/h (3 Bft) 97,62 %
13.03.2020 10:54 8,3 C 9,4 C 7,8 C 75 % 1017,0 hPa 0,0 l/m 0 min 0 min 217 W/m 16,1 km/h (3 Bft) 95,83 %
13.03.2020 10:56 8,4 C 10,6 C 8,3 C 76 % 1017,0 hPa 0,0 l/m 2 min 0 min 295 W/m 6,4 km/h (2 Bft) 97,87 %
13.03.2020 10:58 8,6 C 12,2 C 8,9 C 77 % 1017,1 hPa 0,0 l/m 2 min 0 min 422 W/m 12,9 km/h (3 Bft) 97,96 %
13.03.2020 11:00 8,8 C 12,2 C 9,4 C 77 % 1017,2 hPa 0,0 l/m 2 min 0 min 723 W/m 32,2 km/h (5 Bft) 97,87 %
13.03.2020 11:02 8,9 C 10,6 C 8,9 C 75 % 1017,3 hPa 0,0 l/m 2 min 0 min 604 W/m 19,3 km/h (3 Bft) 97,92 %
13.03.2020 11:04 9,0 C 10,0 C 8,9 C 75 % 1017,1 hPa 0,0 l/m 0 min 0 min 210 W/m 25,7 km/h (4 Bft) 93,62 %
13.03.2020 11:06 9,0 C 9,4 C 8,3 C 74 % 1017,3 hPa 0,0 l/m 0 min 0 min 209 W/m 25,7 km/h (4 Bft) 97,87 %
13.03.2020 11:08 9,0 C 9,4 C 8,9 C 74 % 1017,2 hPa 0,0 l/m 2 min 0 min 271 W/m 16,1 km/h (3 Bft) 97,87 %
13.03.2020 11:10 8,9 C 9,4 C 8,9 C 74 % 1017,3 hPa 0,0 l/m 2 min 0 min 308 W/m 25,7 km/h (4 Bft) 97,87 %
13.03.2020 11:12 8,9 C 9,4 C 8,3 C 74 % 1017,3 hPa 0,0 l/m 2 min 0 min 272 W/m 19,3 km/h (3 Bft) 97,83 %
13.03.2020 11:14 8,9 C 8,9 C 8,3 C 74 % 1017,3 hPa 0,0 l/m 0 min 0 min 230 W/m 22,5 km/h (4 Bft) 97,87 %
13.03.2020 11:16 8,9 C 8,9 C 8,3 C 74 % 1017,3 hPa 0,0 l/m 0 min 0 min 166 W/m 22,5 km/h (4 Bft) 97,87 %
13.03.2020 11:18 8,9 C 8,3 C 7,8 C 74 % 1017,4 hPa 0,0 l/m 0 min 0 min 110 W/m 0,0 km/h (0 Bft) 97,87 %
13.03.2020 11:20 8,8 C 8,3 C 7,8 C 74 % 1017,3 hPa 0,0 l/m 0 min 0 min 104 W/m 22,5 km/h (4 Bft) 97,87 %
13.03.2020 11:22 8,8 C 10,6 C 8,3 C 74 % 1017,3 hPa 0,0 l/m 0 min 0 min 181 W/m 35,4 km/h (5 Bft) 97,56 %
13.03.2020 11:24 8,8 C 10,6 C 8,9 C 75 % 1017,4 hPa 0,0 l/m 2 min 0 min 665 W/m 16,1 km/h (3 Bft) 97,92 %
13.03.2020 11:26 8,9 C 10,0 C 8,9 C 74 % 1017,4 hPa 0,0 l/m 0 min 0 min 233 W/m 25,7 km/h (4 Bft) 97,87 %
13.03.2020 11:28 8,9 C 9,4 C 8,3 C 74 % 1017,5 hPa 0,0 l/m 0 min 0 min 181 W/m 19,3 km/h (3 Bft) 100,00 %
13.03.2020 11:30 8,8 C 8,9 C 8,3 C 74 % 1017,5 hPa 0,0 l/m 0 min 0 min 145 W/m 12,9 km/h (3 Bft) 97,87 %
13.03.2020 11:32 8,8 C 8,3 C 7,8 C 74 % 1017,5 hPa 0,0 l/m 0 min 2 min 135 W/m 19,3 km/h (3 Bft) 97,87 %
13.03.2020 11:34 8,8 C 8,3 C 7,8 C 74 % 1017,5 hPa 0,0 l/m 0 min 0 min 163 W/m 29,0 km/h (5 Bft) 100,00 %
13.03.2020 11:36 8,7 C 8,3 C 7,8 C 74 % 1017,6 hPa 0,0 l/m 0 min 0 min 139 W/m 45,1 km/h (6 Bft) 100,00 %
13.03.2020 11:38 8,7 C 8,3 C 7,8 C 75 % 1017,7 hPa 0,0 l/m 0 min 0 min 152 W/m 29,0 km/h (5 Bft) 100,00 %
13.03.2020 11:40 8,7 C 8,3 C 7,8 C 75 % 1017,6 hPa 0,0 l/m 0 min 0 min 198 W/m 19,3 km/h (3 Bft) 100,00 %
13.03.2020 11:42 8,7 C 8,9 C 8,3 C 75 % 1017,7 hPa 0,0 l/m 0 min 0 min 203 W/m 0,0 km/h (0 Bft) 100,00 %
13.03.2020 11:44 8,6 C 8,3 C 8,3 C 76 % 1017,6 hPa 0,0 l/m 0 min 0 min 177 W/m 22,5 km/h (4 Bft) 100,00 %
13.03.2020 11:46 8,6 C 8,3 C 7,8 C 76 % 1017,6 hPa 0,0 l/m 0 min 0 min 161 W/m 3,2 km/h (1 Bft) 100,00 %
13.03.2020 11:48 8,6 C 8,3 C 7,8 C 76 % 1017,7 hPa 0,0 l/m 0 min 0 min 129 W/m 22,5 km/h (4 Bft) 100,00 %
13.03.2020 11:50 8,6 C 8,3 C 7,8 C 76 % 1017,7 hPa 0,0 l/m 0 min 0 min 111 W/m 25,7 km/h (4 Bft) 100,00 %
13.03.2020 11:52 8,6 C 7,8 C 7,2 C 77 % 1017,8 hPa 0,0 l/m 0 min 2 min 129 W/m 16,1 km/h (3 Bft) 100,00 %
13.03.2020 11:54 8,6 C 7,8 C 6,7 C 78 % 1017,8 hPa 0,0 l/m 0 min 2 min 111 W/m 12,9 km/h (3 Bft) 100,00 %
13.03.2020 11:56 8,5 C 7,8 C 6,7 C 79 % 1017,9 hPa 0,0 l/m 0 min 2 min 174 W/m 19,3 km/h (3 Bft) 97,87 %
13.03.2020 11:58 8,5 C 7,8 C 6,7 C 79 % 1017,8 hPa 0,0 l/m 0 min 2 min 192 W/m 6,4 km/h (2 Bft) 100,00 %
13.03.2020 12:00 8,4 C 8,3 C 7,2 C 80 % 1017,8 hPa 0,0 l/m 0 min 0 min 252 W/m 3,2 km/h (1 Bft) 100,00 %
13.03.2020 12:02 8,4 C 9,4 C 7,8 C 80 % 1017,8 hPa 0,0 l/m 2 min 2 min 362 W/m 12,9 km/h (3 Bft) 100,00 %
13.03.2020 12:04 8,5 C 11,1 C 8,9 C 80 % 1017,9 hPa 0,0 l/m 2 min 0 min 482 W/m 12,9 km/h (3 Bft) 100,00 %
13.03.2020 12:08 8,7 C 11,1 C 9,4 C 80 % 1017,8 hPa 0,0 l/m 4 min 0 min 429 W/m 19,3 km/h (3 Bft) 100,00 %
13.03.2020 12:10 8,8 C 11,7 C 10,0 C 79 % 1017,7 hPa 0,0 l/m 2 min 0 min 405 W/m 6,4 km/h (2 Bft) 100,00 %
13.03.2020 12:12 8,9 C 10,6 C 9,4 C 78 % 1017,8 hPa 0,0 l/m 2 min 0 min 310 W/m 12,9 km/h (3 Bft) 100,00 %
13.03.2020 12:14 9,0 C 10,0 C 9,4 C 77 % 1017,7 hPa 0,0 l/m 0 min 0 min 214 W/m 12,9 km/h (3 Bft) 100,00 %
13.03.2020 12:16 9,1 C 10,0 C 8,9 C 77 % 1017,7 hPa 0,0 l/m 0 min 0 min 151 W/m 6,4 km/h (2 Bft) 100,00 %
13.03.2020 12:18 9,1 C 9,4 C 8,9 C 77 % 1017,8 hPa 0,0 l/m 0 min 0 min 136 W/m 6,4 km/h (2 Bft) 95,83 %
13.03.2020 12:20 9,1 C 9,4 C 8,9 C 76 % 1017,8 hPa 0,0 l/m 0 min 0 min 135 W/m 0,0 km/h (0 Bft) 97,87 %
13.03.2020 12:22 9,2 C 10,0 C 8,9 C 76 % 1017,7 hPa 0,0 l/m 0 min 0 min 207 W/m 9,7 km/h (2 Bft) 95,74 %
13.03.2020 12:24 9,2 C 10,6 C 9,4 C 75 % 1017,8 hPa 0,0 l/m 0 min 0 min 239 W/m 9,7 km/h (2 Bft) 97,87 %
13.03.2020 12:26 9,3 C 10,6 C 9,4 C 75 % 1017,9 hPa 0,0 l/m 0 min 0 min 219 W/m 12,9 km/h (3 Bft) 97,87 %
13.03.2020 12:28 9,3 C 10,0 C 8,9 C 74 % 1017,9 hPa 0,0 l/m 0 min 0 min 169 W/m 16,1 km/h (3 Bft) 97,87 %
13.03.2020 12:30 9,3 C 9,4 C 8,9 C 73 % 1017,9 hPa 0,0 l/m 0 min 0 min 156 W/m 6,4 km/h (2 Bft) 97,87 %
13.03.2020 12:32 9,3 C 9,4 C 8,9 C 74 % 1018,0 hPa 0,0 l/m 0 min 0 min 188 W/m 16,1 km/h (3 Bft) 93,48 %
13.03.2020 12:34 9,4 C 9,4 C 8,9 C 73 % 1017,9 hPa 0,0 l/m 0 min 0 min 164 W/m 19,3 km/h (3 Bft) 93,62 %
13.03.2020 12:36 9,4 C 9,4 C 9,4 C 73 % 1018,0 hPa 0,0 l/m 0 min 0 min 143 W/m 12,9 km/h (3 Bft) 93,62 %
13.03.2020 12:38 9,4 C 9,4 C 9,4 C 73 % 1017,9 hPa 0,0 l/m 0 min 0 min 165 W/m 19,3 km/h (3 Bft) 95,74 %
13.03.2020 12:40 9,4 C 10,6 C 9,4 C 73 % 1017,9 hPa 0,0 l/m 0 min 0 min 242 W/m 3,2 km/h (1 Bft) 95,74 %
13.03.2020 12:42 9,5 C 12,8 C 11,1 C 74 % 1018,0 hPa 0,0 l/m 0 min 0 min 272 W/m 16,1 km/h (3 Bft) 95,74 %
13.03.2020 12:44 9,7 C 13,9 C 12,8 C 74 % 1018,1 hPa 0,0 l/m 2 min 0 min 603 W/m 22,5 km/h (4 Bft) 95,65 %
13.03.2020 12:46 9,8 C 12,8 C 11,7 C 73 % 1018,0 hPa 0,0 l/m 2 min 0 min 603 W/m 19,3 km/h (3 Bft) 95,74 %
13.03.2020 12:48 9,9 C 12,2 C 11,1 C 73 % 1018,0 hPa 0,0 l/m 0 min 0 min 257 W/m 12,9 km/h (3 Bft) 93,62 %
13.03.2020 12:50 10,1 C 11,1 C 10,6 C 72 % 1018,1 hPa 0,0 l/m 0 min 0 min 229 W/m 9,7 km/h (2 Bft) 95,74 %
13.03.2020 12:52 10,1 C 10,6 C 10,0 C 71 % 1018,1 hPa 0,0 l/m 0 min 0 min 197 W/m 25,7 km/h (4 Bft) 95,74 %
13.03.2020 12:54 10,1 C 10,0 C 10,0 C 70 % 1018,1 hPa 0,0 l/m 0 min 0 min 244 W/m 19,3 km/h (3 Bft) 95,12 %
13.03.2020 12:56 10,0 C 10,0 C 10,0 C 71 % 1018,2 hPa 0,0 l/m 0 min 0 min 193 W/m 25,7 km/h (4 Bft) 95,74 %
13.03.2020 12:58 9,9 C 9,4 C 9,4 C 71 % 1018,3 hPa 0,0 l/m 0 min 0 min 132 W/m 22,5 km/h (4 Bft) 96,00 %
13.03.2020 13:00 9,9 C 9,4 C 9,4 C 71 % 1018,2 hPa 0,0 l/m 0 min 0 min 184 W/m 0,0 km/h (0 Bft) 95,83 %
13.03.2020 13:02 9,9 C 10,0 C 10,0 C 71 % 1018,2 hPa 0,0 l/m 0 min 0 min 200 W/m 9,7 km/h (2 Bft) 95,65 %
13.03.2020 13:04 9,9 C 10,6 C 10,0 C 71 % 1018,1 hPa 0,0 l/m 0 min 0 min 182 W/m 3,2 km/h (1 Bft) 95,65 %
13.03.2020 13:06 9,9 C 11,1 C 10,6 C 72 % 1018,1 hPa 0,0 l/m 0 min 0 min 204 W/m 0,0 km/h (0 Bft) 95,83 %
13.03.2020 13:08 9,9 C 11,1 C 10,6 C 72 % 1018,2 hPa 0,0 l/m 0 min 0 min 282 W/m 3,2 km/h (1 Bft) 97,87 %
13.03.2020 13:10 10,1 C 12,2 C 11,7 C 72 % 1018,2 hPa 0,0 l/m 2 min 0 min 330 W/m 22,5 km/h (4 Bft) 97,87 %
13.03.2020 13:12 10,1 C 11,7 C 11,1 C 72 % 1018,1 hPa 0,0 l/m 0 min 0 min 219 W/m 12,9 km/h (3 Bft) 95,74 %
13.03.2020 13:14 10,2 C 10,6 C 10,6 C 72 % 1018,1 hPa 0,0 l/m 0 min 0 min 111 W/m 12,9 km/h (3 Bft) 100,00 %
13.03.2020 13:16 10,1 C 10,0 C 10,0 C 71 % 1018,2 hPa 0,0 l/m 0 min 0 min 69 W/m 16,1 km/h (3 Bft) 97,87 %
13.03.2020 13:18 10,1 C 9,4 C 9,4 C 71 % 1018,2 hPa 0,0 l/m 0 min 0 min 54 W/m 25,7 km/h (4 Bft) 97,87 %
13.03.2020 13:20 10,1 C 8,9 C 8,9 C 72 % 1018,3 hPa 0,0 l/m 0 min 2 min 59 W/m 16,1 km/h (3 Bft) 100,00 %
13.03.2020 13:22 10,0 C 8,3 C 8,9 C 73 % 1018,4 hPa 0,0 l/m 0 min 2 min 82 W/m 16,1 km/h (3 Bft) 100,00 %
13.03.2020 13:24 9,9 C 8,9 C 8,9 C 74 % 1018,4 hPa 0,0 l/m 0 min 2 min 192 W/m 16,1 km/h (3 Bft) 97,87 %
13.03.2020 13:26 10,0 C 10,6 C 9,4 C 76 % 1018,4 hPa 0,0 l/m 0 min 2 min 261 W/m 16,1 km/h (3 Bft) 95,74 %
13.03.2020 13:28 10,0 C 10,6 C 10,0 C 77 % 1018,4 hPa 0,0 l/m 2 min 0 min 286 W/m 16,1 km/h (3 Bft) 100,00 %
13.03.2020 13:30 10,0 C 10,6 C 10,0 C 76 % 1018,5 hPa 0,0 l/m 2 min 0 min 296 W/m 3,2 km/h (1 Bft) 100,00 %
13.03.2020 13:32 9,9 C 11,1 C 10,0 C 76 % 1018,5 hPa 0,0 l/m 0 min 0 min 279 W/m 16,1 km/h (3 Bft) 100,00 %
13.03.2020 13:34 10,0 C 12,2 C 10,6 C 76 % 1018,5 hPa 0,0 l/m 0 min 0 min 271 W/m 19,3 km/h (3 Bft) 100,00 %
13.03.2020 13:36 10,1 C 11,7 C 10,6 C 77 % 1018,5 hPa 0,0 l/m 0 min 0 min 271 W/m 22,5 km/h (4 Bft) 100,00 %
13.03.2020 13:38 10,1 C 11,1 C 10,0 C 76 % 1018,6 hPa 0,0 l/m 0 min 0 min 240 W/m 0,0 km/h (0 Bft) 100,00 %
13.03.2020 13:40 10,1 C 11,1 C 10,6 C 76 % 1018,5 hPa 0,0 l/m 0 min 0 min 250 W/m 12,9 km/h (3 Bft) 100,00 %
13.03.2020 13:42 10,1 C 10,6 C 10,0 C 76 % 1018,5 hPa 0,0 l/m 0 min 0 min 219 W/m 12,9 km/h (3 Bft) 100,00 %
13.03.2020 13:44 10,1 C 10,6 C 10,0 C 75 % 1018,5 hPa 0,0 l/m 0 min 0 min 186 W/m 0,0 km/h (0 Bft) 100,00 %
13.03.2020 13:46 10,1 C 10,0 C 10,0 C 75 % 1018,6 hPa 0,0 l/m 0 min 0 min 161 W/m 19,3 km/h (3 Bft) 95,74 %
13.03.2020 13:48 10,1 C 10,0 C 9,4 C 75 % 1018,5 hPa 0,0 l/m 0 min 0 min 141 W/m 6,4 km/h (2 Bft) 100,00 %
13.03.2020 13:50 10,0 C 9,4 C 9,4 C 75 % 1018,6 hPa 0,0 l/m 0 min 0 min 113 W/m 16,1 km/h (3 Bft) 100,00 %
13.03.2020 13:52 9,9 C 9,4 C 8,9 C 74 % 1018,6 hPa 0,0 l/m 0 min 0 min 82 W/m 9,7 km/h (2 Bft) 97,92 %
13.03.2020 13:54 9,8 C 8,9 C 8,9 C 75 % 1018,8 hPa 0,0 l/m 0 min 0 min 64 W/m 22,5 km/h (4 Bft) 100,00 %
13.03.2020 13:56 9,7 C 8,3 C 8,3 C 76 % 1018,8 hPa 0,0 l/m 0 min 2 min 72 W/m 35,4 km/h (5 Bft) 100,00 %
13.03.2020 13:58 9,6 C 8,3 C 8,3 C 76 % 1018,8 hPa 0,0 l/m 0 min 2 min 137 W/m 29,0 km/h (5 Bft) 100,00 %
13.03.2020 14:00 9,4 C 8,3 C 8,3 C 78 % 1018,8 hPa 0,0 l/m 0 min 2 min 178 W/m 16,1 km/h (3 Bft) 100,00 %
13.03.2020 14:02 9,3 C 8,9 C 8,3 C 78 % 1018,8 hPa 0,0 l/m 0 min 0 min 197 W/m 19,3 km/h (3 Bft) 97,87 %
13.03.2020 14:04 9,2 C 9,4 C 8,9 C 79 % 1018,9 hPa 0,0 l/m 2 min 0 min 279 W/m 16,1 km/h (3 Bft) 100,00 %
13.03.2020 14:06 9,2 C 10,0 C 8,9 C 80 % 1018,8 hPa 0,0 l/m 2 min 0 min 290 W/m 16,1 km/h (3 Bft) 100,00 %
13.03.2020 14:08 9,2 C 11,7 C 9,4 C 80 % 1018,7 hPa 0,0 l/m 2 min 0 min 325 W/m 3,2 km/h (1 Bft) 100,00 %
13.03.2020 14:10 9,2 C 13,3 C 10,0 C 80 % 1018,7 hPa 0,0 l/m 2 min 0 min 652 W/m 12,9 km/h (3 Bft) 100,00 %
13.03.2020 14:12 9,4 C 13,9 C 10,6 C 80 % 1018,7 hPa 0,0 l/m 2 min 0 min 741 W/m 19,3 km/h (3 Bft) 97,83 %
13.03.2020 14:14 9,6 C 14,4 C 10,0 C 79 % 1018,7 hPa 0,0 l/m 2 min 0 min 630 W/m 16,1 km/h (3 Bft) 97,92 %
13.03.2020 14:16 9,7 C 15,6 C 10,0 C 78 % 1018,7 hPa 0,0 l/m 2 min 0 min 616 W/m 12,9 km/h (3 Bft) 100,00 %
13.03.2020 14:18 9,9 C 15,0 C 10,0 C 77 % 1018,7 hPa 0,0 l/m 2 min 0 min 564 W/m 29,0 km/h (5 Bft) 93,62 %
13.03.2020 14:20 10,1 C 15,0 C 10,0 C 77 % 1018,7 hPa 0,0 l/m 2 min 0 min 594 W/m 9,7 km/h (2 Bft) 97,92 %
13.03.2020 14:22 10,2 C 15,0 C 10,6 C 76 % 1018,7 hPa 0,0 l/m 2 min 0 min 602 W/m 9,7 km/h (2 Bft) 97,87 %
13.03.2020 14:24 10,3 C 13,3 C 10,0 C 76 % 1018,7 hPa 0,0 l/m 2 min 0 min 418 W/m 19,3 km/h (3 Bft) 97,87 %
13.03.2020 14:26 10,4 C 13,9 C 10,0 C 76 % 1018,7 hPa 0,0 l/m 2 min 0 min 337 W/m 3,2 km/h (1 Bft) 97,87 %
13.03.2020 14:28 10,5 C 14,4 C 10,6 C 75 % 1018,7 hPa 0,0 l/m 2 min 0 min 526 W/m 0,0 km/h (0 Bft) 95,74 %
13.03.2020 14:30 10,6 C 15,0 C 10,6 C 74 % 1018,7 hPa 0,0 l/m 2 min 0 min 624 W/m 19,3 km/h (3 Bft) 97,92 %
13.03.2020 14:32 10,7 C 15,6 C 10,6 C 75 % 1018,6 hPa 0,0 l/m 2 min 0 min 661 W/m 6,4 km/h (2 Bft) 97,87 %
13.03.2020 14:34 10,8 C 16,1 C 11,1 C 74 % 1018,6 hPa 0,0 l/m 2 min 0 min 720 W/m 9,7 km/h (2 Bft) 97,87 %
13.03.2020 14:36 10,9 C 16,7 C 11,1 C 74 % 1018,6 hPa 0,0 l/m 2 min 0 min 528 W/m 12,9 km/h (3 Bft) 97,87 %
13.03.2020 14:38 11,2 C 16,7 C 11,7 C 74 % 1018,6 hPa 0,0 l/m 2 min 0 min 642 W/m 0,0 km/h (0 Bft) 97,87 %
13.03.2020 14:40 11,3 C 17,2 C 11,7 C 74 % 1018,6 hPa 0,0 l/m 2 min 0 min 590 W/m 3,2 km/h (1 Bft) 97,83 %
13.03.2020 14:42 11,4 C 16,7 C 11,7 C 73 % 1018,6 hPa 0,0 l/m 2 min 0 min 566 W/m 9,7 km/h (2 Bft) 97,87 %
13.03.2020 14:44 11,6 C 17,2 C 11,1 C 72 % 1018,6 hPa 0,0 l/m 2 min 0 min 559 W/m 6,4 km/h (2 Bft) 97,87 %
13.03.2020 14:46 11,7 C 16,1 C 11,1 C 72 % 1018,6 hPa 0,0 l/m 2 min 0 min 551 W/m 9,7 km/h (2 Bft) 97,87 %
13.03.2020 14:48 11,7 C 16,1 C 11,1 C 72 % 1018,6 hPa 0,0 l/m 2 min 0 min 552 W/m 9,7 km/h (2 Bft) 95,74 %
13.03.2020 14:50 11,8 C 16,1 C 11,1 C 72 % 1018,7 hPa 0,0 l/m 2 min 0 min 547 W/m 12,9 km/h (3 Bft) 97,87 %
13.03.2020 14:52 11,8 C 16,1 C 11,1 C 71 % 1018,7 hPa 0,0 l/m 2 min 0 min 538 W/m 0,0 km/h (0 Bft) 97,83 %
13.03.2020 14:54 11,9 C 15,6 C 11,1 C 70 % 1018,7 hPa 0,0 l/m 2 min 0 min 546 W/m 9,7 km/h (2 Bft) 97,87 %
13.03.2020 14:56 11,9 C 16,1 C 11,1 C 71 % 1018,6 hPa 0,0 l/m 2 min 0 min 548 W/m 12,9 km/h (3 Bft) 95,74 %
13.03.2020 14:58 12,0 C 15,0 C 11,1 C 71 % 1018,6 hPa 0,0 l/m 2 min 0 min 551 W/m 12,9 km/h (3 Bft) 95,35 %
13.03.2020 15:00 11,9 C 12,2 C 10,6 C 70 % 1018,7 hPa 0,0 l/m 0 min 0 min 114 W/m 12,9 km/h (3 Bft) 91,67 %
13.03.2020 15:02 11,8 C 12,2 C 10,0 C 68 % 1018,7 hPa 0,0 l/m 0 min 0 min 88 W/m 12,9 km/h (3 Bft) 93,62 %
13.03.2020 15:04 11,7 C 12,2 C 10,0 C 69 % 1018,7 hPa 0,0 l/m 0 min 0 min 138 W/m 25,7 km/h (4 Bft) 91,84 %
13.03.2020 15:06 11,6 C 12,8 C 10,6 C 69 % 1018,7 hPa 0,0 l/m 0 min 0 min 151 W/m 0,0 km/h (0 Bft) 91,49 %
13.03.2020 15:08 11,6 C 11,7 C 10,6 C 69 % 1018,7 hPa 0,0 l/m 0 min 0 min 160 W/m 6,4 km/h (2 Bft) 93,62 %
13.03.2020 15:10 11,4 C 11,1 C 10,0 C 69 % 1018,8 hPa 0,0 l/m 0 min 0 min 129 W/m 19,3 km/h (3 Bft) 93,62 %
13.03.2020 15:12 11,3 C 10,6 C 10,0 C 68 % 1018,8 hPa 0,0 l/m 0 min 0 min 133 W/m 19,3 km/h (3 Bft) 93,62 %
13.03.2020 15:14 11,2 C 11,1 C 10,0 C 69 % 1018,8 hPa 0,0 l/m 0 min 0 min 142 W/m 12,9 km/h (3 Bft) 93,48 %
13.03.2020 15:16 11,2 C 10,6 C 10,0 C 70 % 1018,9 hPa 0,0 l/m 0 min 0 min 132 W/m 6,4 km/h (2 Bft) 91,49 %
13.03.2020 15:18 11,1 C 11,1 C 10,0 C 69 % 1018,9 hPa 0,0 l/m 0 min 0 min 203 W/m 6,4 km/h (2 Bft) 91,49 %
13.03.2020 15:20 11,1 C 12,8 C 10,6 C 70 % 1018,8 hPa 0,0 l/m 2 min 0 min 263 W/m 6,4 km/h (2 Bft) 93,62 %
13.03.2020 15:22 11,1 C 13,9 C 11,1 C 71 % 1018,8 hPa 0,0 l/m 2 min 0 min 230 W/m 9,7 km/h (2 Bft) 92,86 %
13.03.2020 15:24 11,2 C 12,8 C 11,1 C 70 % 1018,8 hPa 0,0 l/m 0 min 0 min 215 W/m 3,2 km/h (1 Bft) 93,62 %
13.03.2020 15:26 11,2 C 11,7 C 11,1 C 70 % 1018,8 hPa 0,0 l/m 0 min 0 min 161 W/m 0,0 km/h (0 Bft) 91,49 %
13.03.2020 15:28 11,1 C 11,1 C 10,6 C 68 % 1018,7 hPa 0,0 l/m 0 min 0 min 128 W/m 0,0 km/h (0 Bft) 93,75 %
13.03.2020 15:30 11,1 C 10,6 C 10,0 C 69 % 1018,8 hPa 0,0 l/m 0 min 0 min 123 W/m 12,9 km/h (3 Bft) 93,62 %
13.03.2020 15:32 11,1 C 10,6 C 10,0 C 69 % 1018,8 hPa 0,0 l/m 0 min 0 min 112 W/m 0,0 km/h (0 Bft) 91,67 %
13.03.2020 15:34 11,1 C 10,6 C 10,0 C 69 % 1018,8 hPa 0,0 l/m 0 min 0 min 154 W/m 9,7 km/h (2 Bft) 93,62 %
13.03.2020 15:36 11,0 C 10,6 C 10,0 C 69 % 1018,9 hPa 0,0 l/m 0 min 0 min 172 W/m 0,0 km/h (0 Bft) 95,74 %
13.03.2020 15:38 10,9 C 11,1 C 10,0 C 70 % 1018,8 hPa 0,0 l/m 0 min 0 min 193 W/m 0,0 km/h (0 Bft) 95,83 %
13.03.2020 15:40 10,9 C 11,1 C 10,6 C 70 % 1018,8 hPa 0,0 l/m 0 min 0 min 180 W/m 0,0 km/h (0 Bft) 97,87 %
13.03.2020 15:42 10,9 C 12,2 C 10,6 C 70 % 1018,8 hPa 0,0 l/m 0 min 0 min 186 W/m 0,0 km/h (0 Bft) 95,74 %
13.03.2020 15:44 10,9 C 11,7 C 10,6 C 69 % 1018,8 hPa 0,0 l/m 2 min 0 min 254 W/m 0,0 km/h (0 Bft) 97,87 %
13.03.2020 15:46 10,9 C 11,1 C 10,6 C 69 % 1018,8 hPa 0,0 l/m 0 min 0 min 109 W/m 0,0 km/h (0 Bft) 97,87 %
13.03.2020 15:48 10,8 C 10,6 C 10,0 C 68 % 1018,8 hPa 0,0 l/m 0 min 0 min 90 W/m 0,0 km/h (0 Bft) 97,87 %
13.03.2020 15:50 10,8 C 10,0 C 10,0 C 68 % 1018,8 hPa 0,0 l/m 0 min 0 min 77 W/m 0,0 km/h (0 Bft) 95,65 %
13.03.2020 15:52 10,7 C 10,0 C 9,4 C 68 % 1018,9 hPa 0,0 l/m 0 min 0 min 69 W/m 0,0 km/h (0 Bft) 100,00 %
13.03.2020 15:54 10,6 C 10,0 C 9,4 C 67 % 1018,8 hPa 0,0 l/m 0 min 0 min 59 W/m 29,0 km/h (5 Bft) 100,00 %
13.03.2020 15:56 10,6 C 9,4 C 9,4 C 68 % 1018,9 hPa 0,0 l/m 0 min 0 min 53 W/m 22,5 km/h (4 Bft) 100,00 %
13.03.2020 15:58 10,5 C 9,4 C 9,4 C 69 % 1018,9 hPa 0,0 l/m 0 min 0 min 47 W/m 6,4 km/h (2 Bft) 100,00 %
13.03.2020 16:00 10,5 C 8,9 C 9,4 C 69 % 1019,0 hPa 0,0 l/m 0 min 0 min 33 W/m 9,7 km/h (2 Bft) 100,00 %
13.03.2020 16:02 10,4 C 8,9 C 8,9 C 68 % 1019,0 hPa 0,0 l/m 0 min 0 min 26 W/m 19,3 km/h (3 Bft) 100,00 %
13.03.2020 16:04 10,3 C 8,9 C 8,9 C 69 % 1019,2 hPa 0,0 l/m 0 min 2 min 28 W/m 29,0 km/h (5 Bft) 100,00 %
13.03.2020 16:06 10,2 C 8,3 C 7,8 C 70 % 1019,3 hPa 0,0 l/m 0 min 2 min 50 W/m 19,3 km/h (3 Bft) 100,00 %
13.03.2020 16:08 10,1 C 7,2 C 6,7 C 73 % 1019,3 hPa 0,0 l/m 0 min 2 min 74 W/m 35,4 km/h (5 Bft) 100,00 %
13.03.2020 16:10 9,9 C 8,9 C 7,2 C 75 % 1019,2 hPa 0,0 l/m 2 min 2 min 285 W/m 19,3 km/h (3 Bft) 100,00 %
13.03.2020 16:12 9,9 C 10,0 C 8,3 C 77 % 1019,2 hPa 0,0 l/m 2 min 2 min 473 W/m 12,9 km/h (3 Bft) 100,00 %
13.03.2020 16:14 9,9 C 10,6 C 9,4 C 78 % 1019,1 hPa 0,0 l/m 2 min 0 min 395 W/m 9,7 km/h (2 Bft) 100,00 %
13.03.2020 16:16 9,9 C 10,6 C 10,0 C 79 % 1019,2 hPa 0,0 l/m 2 min 0 min 342 W/m 9,7 km/h (2 Bft) 97,87 %
13.03.2020 16:18 9,9 C 9,4 C 9,4 C 79 % 1019,1 hPa 0,0 l/m 2 min 0 min 244 W/m 12,9 km/h (3 Bft) 100,00 %
13.03.2020 16:20 9,9 C 10,0 C 8,9 C 78 % 1019,1 hPa 0,0 l/m 2 min 0 min 310 W/m 0,0 km/h (0 Bft) 100,00 %
13.03.2020 16:22 9,8 C 9,4 C 8,9 C 77 % 1019,0 hPa 0,0 l/m 2 min 0 min 217 W/m 3,2 km/h (1 Bft) 100,00 %
13.03.2020 16:24 9,8 C 10,6 C 8,9 C 77 % 1019,1 hPa 0,0 l/m 2 min 0 min 241 W/m 3,2 km/h (1 Bft) 97,83 %
13.03.2020 16:26 9,8 C 11,1 C 9,4 C 77 % 1019,0 hPa 0,0 l/m 2 min 0 min 315 W/m 0,0 km/h (0 Bft) 100,00 %
13.03.2020 16:28 9,9 C 11,1 C 10,0 C 77 % 1019,1 hPa 0,0 l/m 2 min 0 min 286 W/m 16,1 km/h (3 Bft) 100,00 %
13.03.2020 16:30 9,9 C 11,7 C 10,0 C 77 % 1019,0 hPa 0,0 l/m 2 min 0 min 308 W/m 3,2 km/h (1 Bft) 100,00 %
13.03.2020 16:32 10,0 C 12,2 C 10,0 C 77 % 1019,0 hPa 0,0 l/m 2 min 0 min 318 W/m 3,2 km/h (1 Bft) 100,00 %
13.03.2020 16:34 10,1 C 12,2 C 10,0 C 77 % 1019,0 hPa 0,0 l/m 2 min 0 min 339 W/m 3,2 km/h (1 Bft) 100,00 %
13.03.2020 16:36 10,1 C 12,2 C 8,9 C 77 % 1019,1 hPa 0,0 l/m 2 min 0 min 348 W/m 9,7 km/h (2 Bft) 100,00 %
13.03.2020 16:38 10,2 C 12,8 C 8,9 C 76 % 1019,0 hPa 0,0 l/m 2 min 0 min 352 W/m 6,4 km/h (2 Bft) 97,92 %
13.03.2020 16:40 10,2 C 12,2 C 9,4 C 76 % 1019,0 hPa 0,0 l/m 2 min 0 min 289 W/m 0,0 km/h (0 Bft) 100,00 %
13.03.2020 16:42 10,3 C 12,8 C 9,4 C 76 % 1018,9 hPa 0,0 l/m 2 min 0 min 282 W/m 0,0 km/h (0 Bft) 100,00 %
13.03.2020 16:44 10,3 C 12,8 C 9,4 C 76 % 1018,9 hPa 0,0 l/m 2 min 0 min 279 W/m 0,0 km/h (0 Bft) 100,00 %
13.03.2020 16:46 10,4 C 12,8 C 10,0 C 75 % 1018,9 hPa 0,0 l/m 2 min 0 min 234 W/m 3,2 km/h (1 Bft) 100,00 %
13.03.2020 16:48 10,4 C 12,2 C 10,0 C 74 % 1018,9 hPa 0,0 l/m 2 min 0 min 196 W/m 6,4 km/h (2 Bft) 100,00 %
13.03.2020 16:50 10,4 C 12,2 C 10,0 C 74 % 1018,9 hPa 0,0 l/m 2 min 0 min 230 W/m 0,0 km/h (0 Bft) 100,00 %
13.03.2020 16:52 10,4 C 11,1 C 9,4 C 74 % 1018,9 hPa 0,0 l/m 2 min 0 min 221 W/m 6,4 km/h (2 Bft) 100,00 %
13.03.2020 16:54 10,4 C 11,1 C 8,9 C 74 % 1018,9 hPa 0,0 l/m 0 min 0 min 110 W/m 3,2 km/h (1 Bft) 97,87 %
13.03.2020 16:56 10,4 C 10,6 C 8,9 C 73 % 1018,9 hPa 0,0 l/m 0 min 0 min 105 W/m 22,5 km/h (4 Bft) 100,00 %
13.03.2020 16:58 10,3 C 10,0 C 8,9 C 73 % 1018,9 hPa 0,0 l/m 0 min 0 min 62 W/m 0,0 km/h (0 Bft) 100,00 %
13.03.2020 17:00 10,3 C 9,4 C 8,9 C 74 % 1018,9 hPa 0,0 l/m 0 min 0 min 72 W/m 3,2 km/h (1 Bft) 100,00 %
13.03.2020 17:02 10,3 C 9,4 C 8,9 C 73 % 1019,0 hPa 0,0 l/m 0 min 0 min 91 W/m 6,4 km/h (2 Bft) 100,00 %
13.03.2020 17:04 10,2 C 9,4 C 8,9 C 73 % 1018,9 hPa 0,0 l/m 0 min 0 min 77 W/m 3,2 km/h (1 Bft) 100,00 %
13.03.2020 17:06 10,2 C 9,4 C 8,9 C 73 % 1019,0 hPa 0,0 l/m 0 min 0 min 54 W/m 0,0 km/h (0 Bft) 100,00 %
13.03.2020 17:08 10,1 C 8,9 C 8,3 C 74 % 1019,0 hPa 0,0 l/m 0 min 0 min 41 W/m 0,0 km/h (0 Bft) 100,00 %
13.03.2020 17:10 10,1 C 8,9 C 8,3 C 74 % 1019,0 hPa 0,0 l/m 0 min 0 min 31 W/m 0,0 km/h (0 Bft) 100,00 %
13.03.2020 17:12 10,1 C 8,9 C 8,3 C 74 % 1019,0 hPa 0,0 l/m 0 min 0 min 24 W/m 0,0 km/h (0 Bft) 100,00 %
13.03.2020 17:14 10,0 C 8,9 C 8,3 C 74 % 1019,0 hPa 0,0 l/m 0 min 0 min 20 W/m 0,0 km/h (0 Bft) 100,00 %
13.03.2020 17:16 9,9 C 8,3 C 8,3 C 74 % 1019,0 hPa 0,0 l/m 0 min 2 min 18 W/m 0,0 km/h (0 Bft) 100,00 %
13.03.2020 17:18 9,8 C 8,3 C 7,8 C 74 % 1019,0 hPa 0,0 l/m 0 min 2 min 15 W/m 0,0 km/h (0 Bft) 100,00 %
13.03.2020 17:20 9,8 C 6,7 C 6,7 C 75 % 1019,2 hPa 0,2 l/m 0 min 2 min 15 W/m 0,0 km/h (0 Bft) 100,00 %
13.03.2020 17:22 9,7 C 6,1 C 6,1 C 76 % 1019,2 hPa 0,0 l/m 0 min 2 min 19 W/m 6,4 km/h (2 Bft) 100,00 %
13.03.2020 17:24 9,6 C 6,1 C 5,6 C 78 % 1019,2 hPa 0,2 l/m 0 min 2 min 24 W/m 3,2 km/h (1 Bft) 100,00 %
13.03.2020 17:26 9,4 C 6,1 C 5,6 C 79 % 1019,1 hPa 0,0 l/m 0 min 2 min 26 W/m 6,4 km/h (2 Bft) 97,92 %
13.03.2020 17:28 9,3 C 5,6 C 5,6 C 80 % 1019,1 hPa 0,0 l/m 0 min 2 min 23 W/m 6,4 km/h (2 Bft) 97,87 %
13.03.2020 17:30 9,3 C 5,6 C 5,6 C 80 % 1019,2 hPa 0,0 l/m 0 min 0 min 18 W/m 0,0 km/h (0 Bft) 95,65 %
13.03.2020 17:32 9,2 C 6,1 C 5,6 C 80 % 1019,2 hPa 0,0 l/m 0 min 2 min 14 W/m 0,0 km/h (0 Bft) 94,59 %
13.03.2020 17:34 9,1 C 6,1 C 5,6 C 81 % 1019,3 hPa 0,0 l/m 0 min 2 min 14 W/m 0,0 km/h (0 Bft) 100,00 %
13.03.2020 17:36 9,0 C 6,1 C 5,6 C 82 % 1019,3 hPa 0,0 l/m 0 min 2 min 14 W/m 0,0 km/h (0 Bft) 97,87 %
13.03.2020 17:38 8,8 C 5,6 C 5,6 C 82 % 1019,4 hPa 0,0 l/m 0 min 2 min 14 W/m 3,2 km/h (1 Bft) 97,87 %
13.03.2020 17:40 8,7 C 5,6 C 5,6 C 83 % 1019,3 hPa 0,0 l/m 0 min 2 min 18 W/m 0,0 km/h (0 Bft) 97,87 %
13.03.2020 17:42 8,6 C 5,6 C 5,6 C 83 % 1019,3 hPa 0,0 l/m 0 min 2 min 25 W/m 0,0 km/h (0 Bft) 95,74 %
13.03.2020 17:44 8,4 C 5,6 C 5,6 C 84 % 1019,3 hPa 0,0 l/m 0 min 2 min 32 W/m 0,0 km/h (0 Bft) 97,87 %
13.03.2020 17:46 8,4 C 5,6 C 5,6 C 84 % 1019,3 hPa 0,0 l/m 0 min 2 min 30 W/m 0,0 km/h (0 Bft) 95,65 %
13.03.2020 17:48 8,3 C 5,6 C 5,6 C 84 % 1019,3 hPa 0,0 l/m 0 min 2 min 26 W/m 0,0 km/h (0 Bft) 95,74 %
13.03.2020 17:50 8,3 C 5,6 C 5,6 C 84 % 1019,3 hPa 0,0 l/m 0 min 2 min 22 W/m 0,0 km/h (0 Bft) 95,74 %
13.03.2020 17:52 8,2 C 5,6 C 5,6 C 84 % 1019,4 hPa 0,0 l/m 0 min 2 min 19 W/m 0,0 km/h (0 Bft) 95,74 %
13.03.2020 17:54 8,2 C 5,6 C 5,6 C 84 % 1019,5 hPa 0,0 l/m 0 min 2 min 19 W/m 12,9 km/h (3 Bft) 91,49 %
13.03.2020 17:56 8,1 C 5,6 C 5,6 C 84 % 1019,4 hPa 0,2 l/m 0 min 2 min 24 W/m 22,5 km/h (4 Bft) 95,74 %
13.03.2020 17:58 8,0 C 5,6 C 5,6 C 85 % 1019,4 hPa 0,0 l/m 0 min 2 min 26 W/m 0,0 km/h (0 Bft) 95,35 %
13.03.2020 18:00 7,9 C 5,6 C 5,6 C 85 % 1019,5 hPa 0,0 l/m 0 min 2 min 21 W/m 16,1 km/h (3 Bft) 95,83 %
13.03.2020 18:02 7,9 C 5,6 C 5,6 C 85 % 1019,5 hPa 0,0 l/m 0 min 2 min 13 W/m 9,7 km/h (2 Bft) 93,62 %
13.03.2020 18:04 7,8 C 5,6 C 5,0 C 85 % 1019,5 hPa 0,0 l/m 0 min 0 min 11 W/m 0,0 km/h (0 Bft) 93,88 %
13.03.2020 18:08 7,8 C 5,6 C 5,0 C 86 % 1019,4 hPa 0,0 l/m 0 min 0 min 8 W/m 0,0 km/h (0 Bft) 94,68 %
13.03.2020 18:10 7,8 C 5,6 C 5,0 C 86 % 1019,6 hPa 0,0 l/m 0 min 0 min 6 W/m 0,0 km/h (0 Bft) 93,48 %
13.03.2020 18:12 7,7 C 5,6 C 5,6 C 86 % 1019,6 hPa 0,0 l/m 0 min 0 min 3 W/m 0,0 km/h (0 Bft) 93,62 %
13.03.2020 18:14 7,7 C 5,6 C 5,6 C 86 % 1019,6 hPa 0,0 l/m 0 min 0 min 0 W/m 0,0 km/h (0 Bft) 93,62 %
13.03.2020 18:16 7,7 C 5,6 C 5,6 C 86 % 1019,6 hPa 0,0 l/m 0 min 0 min 0 W/m 0,0 km/h (0 Bft) 93,62 %
13.03.2020 18:18 7,7 C 5,6 C 5,6 C 87 % 1019,7 hPa 0,0 l/m 0 min 0 min 0 W/m 0,0 km/h (0 Bft) 89,36 %
13.03.2020 18:20 7,6 C 5,6 C 5,6 C 87 % 1019,7 hPa 0,0 l/m 0 min 0 min 1 W/m 0,0 km/h (0 Bft) 93,48 %
13.03.2020 18:22 7,6 C 5,6 C 5,6 C 88 % 1019,7 hPa 0,0 l/m 0 min 0 min 2 W/m 0,0 km/h (0 Bft) 93,62 %
13.03.2020 18:24 7,6 C 5,6 C 5,6 C 88 % 1019,8 hPa 0,0 l/m 0 min 0 min 0 W/m 0,0 km/h (0 Bft) 91,49 %
13.03.2020 18:26 7,6 C 6,1 C 5,6 C 88 % 1019,9 hPa 0,0 l/m 0 min 0 min 0 W/m 0,0 km/h (0 Bft) 91,49 %
13.03.2020 18:28 7,6 C 6,1 C 5,6 C 88 % 1019,9 hPa 0,0 l/m 0 min 0 min 0 W/m 0,0 km/h (0 Bft) 92,68 %
13.03.2020 18:30 7,6 C 6,1 C 5,6 C 88 % 1020,0 hPa 0,0 l/m 0 min 0 min 0 W/m 0,0 km/h (0 Bft) 91,49 %
13.03.2020 18:32 7,6 C 6,1 C 5,6 C 88 % 1020,0 hPa 0,0 l/m 0 min 0 min 0 W/m 0,0 km/h (0 Bft) 93,75 %
13.03.2020 18:34 7,6 C 6,1 C 5,6 C 88 % 1020,1 hPa 0,0 l/m 0 min 2 min 0 W/m 0,0 km/h (0 Bft) 95,83 %
13.03.2020 18:36 7,6 C 5,6 C 5,6 C 89 % 1020,2 hPa 0,0 l/m 0 min 2 min 0 W/m 0,0 km/h (0 Bft) 97,87 %
13.03.2020 18:38 7,6 C 5,6 C 5,6 C 89 % 1020,2 hPa 0,2 l/m 0 min 2 min 0 W/m 0,0 km/h (0 Bft) 93,75 %
13.03.2020 18:40 7,5 C 5,6 C 5,6 C 89 % 1020,3 hPa 0,0 l/m 0 min 2 min 0 W/m 0,0 km/h (0 Bft) 93,48 %
13.03.2020 18:42 7,5 C 5,6 C 5,0 C 89 % 1020,3 hPa 0,0 l/m 0 min 2 min 0 W/m 0,0 km/h (0 Bft) 93,75 %
13.03.2020 18:44 7,4 C 5,6 C 5,0 C 89 % 1020,2 hPa 0,0 l/m 0 min 0 min 0 W/m 0,0 km/h (0 Bft) 95,83 %
13.03.2020 18:46 7,4 C 5,6 C 5,0 C 89 % 1020,3 hPa 0,0 l/m 0 min 0 min 0 W/m 0,0 km/h (0 Bft) 97,87 %
13.03.2020 18:48 7,4 C 5,6 C 5,0 C 89 % 1020,3 hPa 0,0 l/m 0 min 0 min 0 W/m 0,0 km/h (0 Bft) 95,74 %
13.03.2020 18:50 7,4 C 5,6 C 5,0 C 89 % 1020,3 hPa 0,0 l/m 0 min 0 min 0 W/m 0,0 km/h (0 Bft) 95,74 %
13.03.2020 18:52 7,4 C 5,6 C 5,0 C 89 % 1020,3 hPa 0,0 l/m 0 min 0 min 0 W/m 0,0 km/h (0 Bft) 97,87 %
13.03.2020 18:54 7,4 C 5,6 C 5,0 C 90 % 1020,3 hPa 0,0 l/m 0 min 0 min 0 W/m 0,0 km/h (0 Bft) 97,87 %
13.03.2020 18:56 7,4 C 5,6 C 5,0 C 90 % 1020,5 hPa 0,0 l/m 0 min 0 min 0 W/m 0,0 km/h (0 Bft) 97,83 %
13.03.2020 18:58 7,3 C 5,6 C 5,6 C 90 % 1020,4 hPa 0,0 l/m 0 min 0 min 0 W/m 0,0 km/h (0 Bft) 95,74 %
13.03.2020 19:00 7,3 C 5,6 C 5,6 C 90 % 1020,5 hPa 0,0 l/m 0 min 0 min 0 W/m 0,0 km/h (0 Bft) 97,62 %
13.03.2020 19:02 7,3 C 5,6 C 5,0 C 90 % 1020,5 hPa 0,0 l/m 0 min 0 min 0 W/m 0,0 km/h (0 Bft) 97,87 %
13.03.2020 19:04 7,3 C 5,6 C 5,6 C 90 % 1020,5 hPa 0,0 l/m 0 min 0 min 0 W/m 0,0 km/h (0 Bft) 95,92 %
13.03.2020 19:06 7,3 C 5,6 C 5,6 C 90 % 1020,6 hPa 0,0 l/m 0 min 0 min 0 W/m 0,0 km/h (0 Bft) 97,87 %
13.03.2020 19:08 7,3 C 5,6 C 5,6 C 90 % 1020,6 hPa 0,0 l/m 0 min 0 min 0 W/m 0,0 km/h (0 Bft) 97,87 %
13.03.2020 19:10 7,3 C 5,6 C 5,6 C 90 % 1020,6 hPa 0,0 l/m 0 min 0 min 0 W/m 0,0 km/h (0 Bft) 97,87 %
13.03.2020 19:12 7,3 C 5,6 C 5,6 C 90 % 1020,7 hPa 0,0 l/m 0 min 2 min 0 W/m 0,0 km/h (0 Bft) 100,00 %
13.03.2020 19:14 7,2 C 5,6 C 5,6 C 91 % 1020,6 hPa 0,0 l/m 0 min 0 min 0 W/m 0,0 km/h (0 Bft) 100,00 %
13.03.2020 19:16 7,2 C 5,6 C 5,6 C 91 % 1020,7 hPa 0,0 l/m 0 min 0 min 0 W/m 0,0 km/h (0 Bft) 97,87 %
13.03.2020 19:18 7,2 C 5,6 C 5,0 C 91 % 1020,6 hPa 0,0 l/m 0 min 0 min 0 W/m 0,0 km/h (0 Bft) 100,00 %
13.03.2020 19:20 7,2 C 5,6 C 5,0 C 91 % 1020,6 hPa 0,0 l/m 0 min 2 min 0 W/m 0,0 km/h (0 Bft) 100,00 %
13.03.2020 19:22 7,2 C 5,0 C 5,0 C 91 % 1020,6 hPa 0,0 l/m 0 min 2 min 0 W/m 0,0 km/h (0 Bft) 100,00 %
13.03.2020 19:24 7,1 C 5,0 C 5,0 C 91 % 1020,6 hPa 0,0 l/m 0 min 2 min 0 W/m 0,0 km/h (0 Bft) 100,00 %
13.03.2020 19:26 7,1 C 5,0 C 5,0 C 91 % 1020,6 hPa 0,0 l/m 0 min 2 min 0 W/m 0,0 km/h (0 Bft) 100,00 %
13.03.2020 19:28 7,0 C 5,0 C 5,0 C 91 % 1020,6 hPa 0,0 l/m 0 min 0 min 0 W/m 0,0 km/h (0 Bft) 100,00 %
13.03.2020 19:30 6,9 C 5,0 C 5,0 C 91 % 1020,6 hPa 0,0 l/m 0 min 0 min 0 W/m 0,0 km/h (0 Bft) 97,83 %
13.03.2020 19:32 6,9 C 5,0 C 5,0 C 91 % 1020,7 hPa 0,0 l/m 0 min 0 min 0 W/m 0,0 km/h (0 Bft) 97,87 %
13.03.2020 19:34 6,9 C 5,0 C 5,0 C 91 % 1020,7 hPa 0,0 l/m 0 min 0 min 0 W/m 0,0 km/h (0 Bft) 100,00 %
13.03.2020 19:36 6,8 C 5,0 C 5,0 C 91 % 1020,7 hPa 0,0 l/m 0 min 2 min 0 W/m 0,0 km/h (0 Bft) 100,00 %
13.03.2020 19:38 6,8 C 5,0 C 5,0 C 91 % 1020,7 hPa 0,0 l/m 0 min 0 min 0 W/m 0,0 km/h (0 Bft) 100,00 %
13.03.2020 19:40 6,8 C 5,0 C 5,0 C 91 % 1020,7 hPa 0,0 l/m 0 min 0 min 0 W/m 0,0 km/h (0 Bft) 56,52 %
13.03.2020 19:42 6,8 C 5,0 C 5,0 C 91 % 1020,7 hPa 0,0 l/m 0 min 2 min 0 W/m 0,0 km/h (0 Bft) 95,65 %
13.03.2020 19:44 6,7 C 5,0 C 5,0 C 91 % 1020,7 hPa 0,0 l/m 0 min 0 min 0 W/m 0,0 km/h (0 Bft) 100,00 %
13.03.2020 19:46 6,7 C 5,0 C 5,0 C 91 % 1020,7 hPa 0,0 l/m 0 min 0 min 0 W/m 0,0 km/h (0 Bft) 100,00 %
13.03.2020 19:48 6,7 C 5,0 C 5,0 C 91 % 1020,8 hPa 0,0 l/m 0 min 0 min 0 W/m 0,0 km/h (0 Bft) 100,00 %
13.03.2020 19:50 6,7 C 5,0 C 5,0 C 91 % 1020,8 hPa 0,0 l/m 0 min 0 min 0 W/m 0,0 km/h (0 Bft) 100,00 %
13.03.2020 19:52 6,7 C 5,0 C 5,0 C 91 % 1020,8 hPa 0,0 l/m 0 min 0 min 0 W/m 0,0 km/h (0 Bft) 100,00 %
13.03.2020 19:54 6,7 C 5,0 C 5,0 C 91 % 1020,8 hPa 0,0 l/m 0 min 0 min 0 W/m 0,0 km/h (0 Bft) 100,00 %
13.03.2020 19:56 6,6 C 5,0 C 5,0 C 91 % 1020,9 hPa 0,0 l/m 0 min 0 min 0 W/m 0,0 km/h (0 Bft) 97,87 %
13.03.2020 19:58 6,6 C 5,0 C 5,0 C 91 % 1020,9 hPa 0,0 l/m 0 min 0 min 0 W/m 0,0 km/h (0 Bft) 100,00 %
13.03.2020 20:00 6,6 C 5,0 C 5,0 C 91 % 1021,0 hPa 0,0 l/m 0 min 0 min 0 W/m 0,0 km/h (0 Bft) 97,87 %
13.03.2020 20:02 6,6 C 5,0 C 5,0 C 91 % 1020,9 hPa 0,0 l/m 0 min 0 min 0 W/m 0,0 km/h (0 Bft) 100,00 %
13.03.2020 20:04 6,6 C 5,0 C 5,0 C 91 % 1020,9 hPa 0,0 l/m 0 min 0 min 0 W/m 0,0 km/h (0 Bft) 100,00 %
13.03.2020 20:06 6,6 C 5,0 C 5,0 C 91 % 1021,0 hPa 0,0 l/m 0 min 0 min 0 W/m 0,0 km/h (0 Bft) 100,00 %
13.03.2020 20:08 6,6 C 5,0 C 5,0 C 91 % 1021,0 hPa 0,0 l/m 0 min 0 min 0 W/m 0,0 km/h (0 Bft) 100,00 %
13.03.2020 20:10 6,6 C 5,0 C 5,0 C 91 % 1021,0 hPa 0,0 l/m 0 min 0 min 0 W/m 0,0 km/h (0 Bft) 100,00 %
13.03.2020 20:12 6,6 C 5,0 C 4,4 C 92 % 1021,0 hPa 0,0 l/m 0 min 0 min 0 W/m 0,0 km/h (0 Bft) 97,83 %
13.03.2020 20:14 6,6 C 5,0 C 4,4 C 92 % 1021,0 hPa 0,0 l/m 0 min 0 min 0 W/m 0,0 km/h (0 Bft) 100,00 %
13.03.2020 20:16 6,5 C 5,0 C 4,4 C 92 % 1021,0 hPa 0,0 l/m 0 min 0 min 0 W/m 0,0 km/h (0 Bft) 100,00 %
13.03.2020 20:18 6,5 C 5,0 C 4,4 C 92 % 1021,0 hPa 0,0 l/m 0 min 0 min 0 W/m 0,0 km/h (0 Bft) 100,00 %
13.03.2020 20:20 6,5 C 4,4 C 4,4 C 92 % 1021,1 hPa 0,0 l/m 0 min 0 min 0 W/m 0,0 km/h (0 Bft) 93,62 %
13.03.2020 20:22 6,5 C 4,4 C 4,4 C 92 % 1021,1 hPa 0,0 l/m 0 min 0 min 0 W/m 0,0 km/h (0 Bft) 95,74 %
13.03.2020 20:24 6,5 C 4,4 C 3,9 C 92 % 1021,1 hPa 0,0 l/m 0 min 0 min 0 W/m 0,0 km/h (0 Bft) 97,83 %
13.03.2020 20:26 6,5 C 4,4 C 3,9 C 92 % 1021,1 hPa 0,0 l/m 0 min 0 min 0 W/m 0,0 km/h (0 Bft) 95,74 %
13.03.2020 20:28 6,4 C 4,4 C 3,9 C 92 % 1021,1 hPa 0,0 l/m 0 min 0 min 0 W/m 0,0 km/h (0 Bft) 97,87 %
13.03.2020 20:30 6,4 C 4,4 C 3,9 C 92 % 1021,1 hPa 0,0 l/m 0 min 0 min 0 W/m 0,0 km/h (0 Bft) 97,87 %
13.03.2020 20:32 6,4 C 4,4 C 3,9 C 92 % 1021,1 hPa 0,0 l/m 0 min 0 min 0 W/m 0,0 km/h (0 Bft) 97,87 %
13.03.2020 20:34 6,4 C 4,4 C 3,9 C 92 % 1021,1 hPa 0,0 l/m 0 min 0 min 0 W/m 0,0 km/h (0 Bft) 97,87 %
13.03.2020 20:36 6,3 C 4,4 C 3,9 C 92 % 1021,1 hPa 0,0 l/m 0 min 0 min 0 W/m 0,0 km/h (0 Bft) 97,83 %
13.03.2020 20:38 6,3 C 4,4 C 3,9 C 92 % 1021,2 hPa 0,0 l/m 0 min 0 min 0 W/m 0,0 km/h (0 Bft) 95,74 %
13.03.2020 20:40 6,3 C 4,4 C 3,9 C 92 % 1021,2 hPa 0,0 l/m 0 min 0 min 0 W/m 0,0 km/h (0 Bft) 97,87 %
13.03.2020 20:42 6,3 C 4,4 C 3,9 C 92 % 1021,2 hPa 0,0 l/m 0 min 0 min 0 W/m 0,0 km/h (0 Bft) 97,87 %
13.03.2020 20:44 6,3 C 4,4 C 3,9 C 92 % 1021,2 hPa 0,0 l/m 0 min 0 min 0 W/m 0,0 km/h (0 Bft) 97,87 %
13.03.2020 20:46 6,2 C 4,4 C 3,9 C 92 % 1021,2 hPa 0,0 l/m 0 min 0 min 0 W/m 0,0 km/h (0 Bft) 97,83 %
13.03.2020 20:48 6,2 C 4,4 C 3,9 C 92 % 1021,2 hPa 0,0 l/m 0 min 0 min 0 W/m 0,0 km/h (0 Bft) 95,74 %
13.03.2020 20:50 6,2 C 4,4 C 3,9 C 92 % 1021,2 hPa 0,0 l/m 0 min 0 min 0 W/m 0,0 km/h (0 Bft) 97,87 %
13.03.2020 20:52 6,1 C 4,4 C 3,9 C 92 % 1021,2 hPa 0,0 l/m 0 min 0 min 0 W/m 0,0 km/h (0 Bft) 97,87 %
13.03.2020 20:54 6,1 C 4,4 C 3,9 C 92 % 1021,2 hPa 0,0 l/m 0 min 0 min 0 W/m 0,0 km/h (0 Bft) 100,00 %
13.03.2020 20:56 6,1 C 4,4 C 3,9 C 92 % 1021,2 hPa 0,0 l/m 0 min 0 min 0 W/m 0,0 km/h (0 Bft) 95,74 %
13.03.2020 20:58 6,1 C 4,4 C 3,9 C 92 % 1021,2 hPa 0,0 l/m 0 min 0 min 0 W/m 0,0 km/h (0 Bft) 97,83 %
13.03.2020 21:00 6,1 C 4,4 C 3,9 C 92 % 1021,2 hPa 0,0 l/m 0 min 0 min 0 W/m 0,0 km/h (0 Bft) 97,87 %
13.03.2020 21:02 6,0 C 4,4 C 3,9 C 92 % 1021,2 hPa 0,0 l/m 0 min 0 min 0 W/m 0,0 km/h (0 Bft) 95,74 %
13.03.2020 21:04 6,0 C 4,4 C 3,9 C 92 % 1021,2 hPa 0,0 l/m 0 min 0 min 0 W/m 0,0 km/h (0 Bft) 97,87 %
13.03.2020 21:06 6,0 C 4,4 C 3,9 C 92 % 1021,2 hPa 0,0 l/m 0 min 0 min 0 W/m 0,0 km/h (0 Bft) 97,87 %
13.03.2020 21:08 6,0 C 4,4 C 3,9 C 92 % 1021,2 hPa 0,0 l/m 0 min 0 min 0 W/m 0,0 km/h (0 Bft) 97,87 %
13.03.2020 21:10 5,9 C 4,4 C 3,9 C 92 % 1021,2 hPa 0,0 l/m 0 min 0 min 0 W/m 0,0 km/h (0 Bft) 97,83 %
13.03.2020 21:12 5,9 C 4,4 C 3,3 C 92 % 1021,2 hPa 0,0 l/m 0 min 0 min 0 W/m 0,0 km/h (0 Bft) 95,74 %
13.03.2020 21:14 5,9 C 3,9 C 3,3 C 92 % 1021,1 hPa 0,0 l/m 0 min 0 min 0 W/m 0,0 km/h (0 Bft) 97,87 %
13.03.2020 21:16 5,9 C 3,9 C 3,3 C 92 % 1021,2 hPa 0,0 l/m 0 min 0 min 0 W/m 0,0 km/h (0 Bft) 95,74 %
13.03.2020 21:18 5,9 C 4,4 C 3,3 C 92 % 1021,2 hPa 0,0 l/m 0 min 0 min 0 W/m 0,0 km/h (0 Bft) 95,74 %
13.03.2020 21:20 5,8 C 4,4 C 3,3 C 92 % 1021,2 hPa 0,0 l/m 0 min 0 min 0 W/m 0,0 km/h (0 Bft) 97,87 %
13.03.2020 21:22 5,8 C 4,4 C 3,3 C 92 % 1021,2 hPa 0,0 l/m 0 min 0 min 0 W/m 0,0 km/h (0 Bft) 97,83 %
13.03.2020 21:24 5,8 C 4,4 C 3,3 C 92 % 1021,2 hPa 0,0 l/m 0 min 0 min 0 W/m 0,0 km/h (0 Bft) 97,87 %
13.03.2020 21:26 5,8 C 4,4 C 3,3 C 92 % 1021,3 hPa 0,0 l/m 0 min 0 min 0 W/m 0,0 km/h (0 Bft) 97,87 %
13.03.2020 21:28 5,8 C 4,4 C 3,3 C 92 % 1021,3 hPa 0,0 l/m 0 min 0 min 0 W/m 0,0 km/h (0 Bft) 95,74 %
13.03.2020 21:30 5,8 C 4,4 C 3,3 C 92 % 1021,4 hPa 0,0 l/m 0 min 0 min 0 W/m 0,0 km/h (0 Bft) 97,87 %
13.03.2020 21:32 5,7 C 4,4 C 3,3 C 92 % 1021,4 hPa 0,0 l/m 0 min 0 min 0 W/m 0,0 km/h (0 Bft) 97,87 %
13.03.2020 21:34 5,7 C 4,4 C 3,3 C 92 % 1021,4 hPa 0,0 l/m 0 min 0 min 0 W/m 0,0 km/h (0 Bft) 95,65 %
13.03.2020 21:36 5,7 C 4,4 C 3,3 C 92 % 1021,4 hPa 0,0 l/m 0 min 0 min 0 W/m 0,0 km/h (0 Bft) 95,74 %
13.03.2020 21:38 5,7 C 4,4 C 3,3 C 92 % 1021,4 hPa 0,0 l/m 0 min 0 min 0 W/m 0,0 km/h (0 Bft) 97,87 %
13.03.2020 21:40 5,7 C 4,4 C 3,3 C 92 % 1021,4 hPa 0,0 l/m 0 min 0 min 0 W/m 0,0 km/h (0 Bft) 97,87 %
13.03.2020 21:42 5,6 C 4,4 C 3,3 C 92 % 1021,4 hPa 0,0 l/m 0 min 0 min 0 W/m 0,0 km/h (0 Bft) 97,87 %
13.03.2020 21:44 5,6 C 4,4 C 3,3 C 92 % 1021,4 hPa 0,0 l/m 0 min 0 min 0 W/m 0,0 km/h (0 Bft) 97,83 %
13.03.2020 21:46 5,6 C 4,4 C 3,3 C 92 % 1021,5 hPa 0,0 l/m 0 min 0 min 0 W/m 0,0 km/h (0 Bft) 95,74 %
13.03.2020 21:48 5,6 C 4,4 C 3,3 C 92 % 1021,4 hPa 0,0 l/m 0 min 0 min 0 W/m 0,0 km/h (0 Bft) 97,87 %
13.03.2020 21:50 5,6 C 4,4 C 3,3 C 92 % 1021,5 hPa 0,0 l/m 0 min 0 min 0 W/m 0,0 km/h (0 Bft) 97,87 %
13.03.2020 21:52 5,6 C 4,4 C 3,3 C 92 % 1021,5 hPa 0,0 l/m 0 min 0 min 0 W/m 0,0 km/h (0 Bft) 100,00 %
13.03.2020 21:54 5,6 C 4,4 C 3,9 C 93 % 1021,5 hPa 0,0 l/m 0 min 0 min 0 W/m 0,0 km/h (0 Bft) 100,00 %
13.03.2020 21:56 5,6 C 4,4 C 3,9 C 93 % 1021,5 hPa 0,0 l/m 0 min 0 min 0 W/m 0,0 km/h (0 Bft) 100,00 %
13.03.2020 21:58 5,6 C 4,4 C 3,9 C 93 % 1021,5 hPa 0,0 l/m 0 min 0 min 0 W/m 0,0 km/h (0 Bft) 97,83 %
13.03.2020 22:00 5,5 C 4,4 C 3,9 C 93 % 1021,6 hPa 0,0 l/m 0 min 0 min 0 W/m 0,0 km/h (0 Bft) 100,00 %
13.03.2020 22:02 5,6 C 4,4 C 3,9 C 93 % 1021,5 hPa 0,0 l/m 0 min 0 min 0 W/m 0,0 km/h (0 Bft) 97,87 %
13.03.2020 22:04 5,5 C 4,4 C 3,9 C 93 % 1021,5 hPa 0,0 l/m 0 min 0 min 0 W/m 0,0 km/h (0 Bft) 97,87 %
13.03.2020 22:06 5,5 C 4,4 C 3,9 C 93 % 1021,5 hPa 0,0 l/m 0 min 0 min 0 W/m 0,0 km/h (0 Bft) 95,74 %
13.03.2020 22:08 5,5 C 4,4 C 3,9 C 93 % 1021,6 hPa 0,0 l/m 0 min 0 min 0 W/m 0,0 km/h (0 Bft) 100,00 %
13.03.2020 22:10 5,5 C 4,4 C 3,9 C 93 % 1021,5 hPa 0,0 l/m 0 min 0 min 0 W/m 0,0 km/h (0 Bft) 95,74 %
13.03.2020 22:12 5,5 C 4,4 C 3,9 C 93 % 1021,5 hPa 0,0 l/m 0 min 0 min 0 W/m 0,0 km/h (0 Bft) 100,00 %
13.03.2020 22:14 5,5 C 4,4 C 3,9 C 93 % 1021,6 hPa 0,0 l/m 0 min 0 min 0 W/m 0,0 km/h (0 Bft) 100,00 %
13.03.2020 22:16 5,5 C 4,4 C 3,9 C 93 % 1021,6 hPa 0,0 l/m 0 min 0 min 0 W/m 0,0 km/h (0 Bft) 97,87 %
13.03.2020 22:18 5,4 C 4,4 C 3,9 C 93 % 1021,6 hPa 0,0 l/m 0 min 0 min 0 W/m 0,0 km/h (0 Bft) 97,87 %
13.03.2020 22:20 5,4 C 4,4 C 3,9 C 93 % 1021,5 hPa 0,0 l/m 0 min 0 min 0 W/m 0,0 km/h (0 Bft) 97,83 %
13.03.2020 22:22 5,4 C 4,4 C 3,9 C 93 % 1021,6 hPa 0,0 l/m 0 min 0 min 0 W/m 0,0 km/h (0 Bft) 97,87 %
13.03.2020 22:24 5,4 C 4,4 C 3,9 C 93 % 1021,6 hPa 0,0 l/m 0 min 0 min 0 W/m 0,0 km/h (0 Bft) 97,87 %
13.03.2020 22:26 5,4 C 4,4 C 3,9 C 93 % 1021,7 hPa 0,0 l/m 0 min 0 min 0 W/m 0,0 km/h (0 Bft) 95,74 %
13.03.2020 22:28 5,4 C 4,4 C 3,9 C 93 % 1021,7 hPa 0,0 l/m 0 min 0 min 0 W/m 0,0 km/h (0 Bft) 97,87 %
13.03.2020 22:30 5,4 C 4,4 C 3,9 C 93 % 1021,7 hPa 0,0 l/m 0 min 0 min 0 W/m 0,0 km/h (0 Bft) 95,74 %
13.03.2020 22:32 5,5 C 4,4 C 3,9 C 93 % 1021,7 hPa 0,0 l/m 0 min 0 min 0 W/m 0,0 km/h (0 Bft) 95,65 %
13.03.2020 22:34 5,5 C 4,4 C 3,9 C 93 % 1021,7 hPa 0,0 l/m 0 min 0 min 0 W/m 0,0 km/h (0 Bft) 89,36 %
13.03.2020 22:36 5,5 C 4,4 C 3,9 C 93 % 1021,7 hPa 0,0 l/m 0 min 0 min 0 W/m 0,0 km/h (0 Bft) 93,62 %
13.03.2020 22:38 5,5 C 4,4 C 3,9 C 93 % 1021,7 hPa 0,0 l/m 0 min 0 min 0 W/m 0,0 km/h (0 Bft) 95,74 %
13.03.2020 22:40 5,5 C 4,4 C 3,9 C 93 % 1021,8 hPa 0,0 l/m 0 min 0 min 0 W/m 0,0 km/h (0 Bft) 95,74 %
13.03.2020 22:42 5,5 C 4,4 C 3,9 C 94 % 1021,7 hPa 0,0 l/m 0 min 0 min 0 W/m 0,0 km/h (0 Bft) 95,74 %
13.03.2020 22:44 5,5 C 4,4 C 3,9 C 94 % 1021,7 hPa 0,0 l/m 0 min 0 min 0 W/m 0,0 km/h (0 Bft) 95,65 %
13.03.2020 22:46 5,5 C 4,4 C 3,9 C 94 % 1021,7 hPa 0,0 l/m 0 min 0 min 0 W/m 0,0 km/h (0 Bft) 95,74 %
13.03.2020 22:48 5,5 C 4,4 C 3,9 C 94 % 1021,8 hPa 0,0 l/m 0 min 0 min 0 W/m 0,0 km/h (0 Bft) 93,62 %
13.03.2020 22:50 5,5 C 4,4 C 3,9 C 94 % 1021,8 hPa 0,0 l/m 0 min 0 min 0 W/m 0,0 km/h (0 Bft) 95,74 %
13.03.2020 22:52 5,5 C 4,4 C 3,9 C 94 % 1021,8 hPa 0,0 l/m 0 min 0 min 0 W/m 0,0 km/h (0 Bft) 97,87 %
13.03.2020 22:54 5,5 C 4,4 C 3,9 C 94 % 1021,8 hPa 0,0 l/m 0 min 0 min 0 W/m 0,0 km/h (0 Bft) 97,83 %
13.03.2020 22:56 5,5 C 4,4 C 3,9 C 94 % 1021,8 hPa 0,0 l/m 0 min 0 min 0 W/m 0,0 km/h (0 Bft) 95,74 %
13.03.2020 22:58 5,5 C 4,4 C 3,9 C 94 % 1021,8 hPa 0,0 l/m 0 min 0 min 0 W/m 0,0 km/h (0 Bft) 97,87 %
13.03.2020 23:00 5,4 C 4,4 C 3,9 C 94 % 1021,8 hPa 0,0 l/m 0 min 0 min 0 W/m 0,0 km/h (0 Bft) 76,60 %
13.03.2020 23:02 5,5 C 4,4 C 3,9 C 94 % 1021,8 hPa 0,0 l/m 0 min 0 min 0 W/m 0,0 km/h (0 Bft) 72,34 %
13.03.2020 23:04 5,4 C 4,4 C 3,9 C 94 % 1021,8 hPa 0,0 l/m 0 min 0 min 0 W/m 0,0 km/h (0 Bft) 97,87 %
13.03.2020 23:06 5,4 C 4,4 C 3,9 C 94 % 1021,8 hPa 0,0 l/m 0 min 0 min 0 W/m 0,0 km/h (0 Bft) 97,83 %
13.03.2020 23:08 5,4 C 4,4 C 3,9 C 94 % 1021,8 hPa 0,0 l/m 0 min 0 min 0 W/m 0,0 km/h (0 Bft) 97,87 %
13.03.2020 23:10 5,4 C 4,4 C 3,9 C 94 % 1021,9 hPa 0,0 l/m 0 min 0 min 0 W/m 0,0 km/h (0 Bft) 97,87 %
13.03.2020 23:12 5,4 C 4,4 C 3,9 C 94 % 1021,9 hPa 0,0 l/m 0 min 0 min 0 W/m 0,0 km/h (0 Bft) 97,87 %
13.03.2020 23:14 5,4 C 4,4 C 3,9 C 94 % 1021,9 hPa 0,0 l/m 0 min 0 min 0 W/m 0,0 km/h (0 Bft) 97,87 %
13.03.2020 23:16 5,4 C 4,4 C 3,9 C 94 % 1021,9 hPa 0,0 l/m 0 min 0 min 0 W/m 0,0 km/h (0 Bft) 97,87 %
13.03.2020 23:18 5,4 C 4,4 C 3,9 C 94 % 1021,9 hPa 0,0 l/m 0 min 0 min 0 W/m 0,0 km/h (0 Bft) 97,83 %
13.03.2020 23:20 5,4 C 4,4 C 3,9 C 94 % 1021,9 hPa 0,0 l/m 0 min 0 min 0 W/m 0,0 km/h (0 Bft) 95,74 %
13.03.2020 23:22 5,4 C 4,4 C 3,9 C 94 % 1021,8 hPa 0,0 l/m 0 min 0 min 0 W/m 0,0 km/h (0 Bft) 97,87 %
13.03.2020 23:24 5,4 C 4,4 C 3,9 C 94 % 1021,8 hPa 0,0 l/m 0 min 0 min 0 W/m 0,0 km/h (0 Bft) 97,87 %
13.03.2020 23:26 5,4 C 3,9 C 3,3 C 94 % 1021,8 hPa 0,0 l/m 0 min 0 min 0 W/m 0,0 km/h (0 Bft) 97,87 %
13.03.2020 23:28 5,4 C 3,9 C 3,3 C 94 % 1021,8 hPa 0,0 l/m 0 min 0 min 0 W/m 0,0 km/h (0 Bft) 97,87 %
13.03.2020 23:30 5,4 C 3,9 C 3,3 C 94 % 1021,8 hPa 0,0 l/m 0 min 0 min 0 W/m 0,0 km/h (0 Bft) 97,83 %
13.03.2020 23:32 5,4 C 3,9 C 3,3 C 94 % 1021,8 hPa 0,0 l/m 0 min 0 min 0 W/m 0,0 km/h (0 Bft) 97,87 %
13.03.2020 23:34 5,4 C 3,9 C 3,3 C 94 % 1021,8 hPa 0,0 l/m 0 min 0 min 0 W/m 0,0 km/h (0 Bft) 97,87 %
13.03.2020 23:36 5,4 C 3,9 C 2,8 C 94 % 1021,8 hPa 0,0 l/m 0 min 0 min 0 W/m 0,0 km/h (0 Bft) 97,87 %
13.03.2020 23:38 5,4 C 3,3 C 2,8 C 94 % 1021,8 hPa 0,0 l/m 0 min 0 min 0 W/m 0,0 km/h (0 Bft) 100,00 %
13.03.2020 23:40 5,4 C 3,3 C 2,8 C 94 % 1021,8 hPa 0,0 l/m 0 min 0 min 0 W/m 0,0 km/h (0 Bft) 100,00 %
13.03.2020 23:42 5,4 C 3,3 C 2,8 C 94 % 1021,8 hPa 0,0 l/m 0 min 0 min 0 W/m 0,0 km/h (0 Bft) 100,00 %
13.03.2020 23:44 5,3 C 3,3 C 2,8 C 94 % 1021,7 hPa 0,0 l/m 0 min 0 min 0 W/m 0,0 km/h (0 Bft) 95,74 %
13.03.2020 23:46 5,3 C 3,3 C 2,8 C 94 % 1021,7 hPa 0,0 l/m 0 min 0 min 0 W/m 0,0 km/h (0 Bft) 100,00 %
13.03.2020 23:48 5,3 C 3,9 C 2,8 C 94 % 1021,7 hPa 0,0 l/m 0 min 0 min 0 W/m 0,0 km/h (0 Bft) 97,87 %
13.03.2020 23:50 5,3 C 3,9 C 2,8 C 94 % 1021,8 hPa 0,0 l/m 0 min 0 min 0 W/m 0,0 km/h (0 Bft) 100,00 %
13.03.2020 23:52 5,2 C 3,9 C 2,8 C 94 % 1021,7 hPa 0,0 l/m 0 min 0 min 0 W/m 0,0 km/h (0 Bft) 100,00 %
13.03.2020 23:54 5,2 C 3,9 C 2,8 C 94 % 1021,7 hPa 0,0 l/m 0 min 0 min 0 W/m 0,0 km/h (0 Bft) 100,00 %
13.03.2020 23:56 5,2 C 3,9 C 2,2 C 94 % 1021,7 hPa 0,0 l/m 0 min 0 min 0 W/m 0,0 km/h (0 Bft) 100,00 %
13.03.2020 23:58 5,2 C 3,9 C 2,2 C 94 % 1021,7 hPa 0,0 l/m 0 min 0 min 0 W/m 0,0 km/h (0 Bft) 100,00 %
_ Min-Zeit 23:52 23:38 23:56 15:54 00:00 - - - - 02:06 19:40
Minimum _ 5,2 C 3,3 C 2,2 C 67 % 1012,5 hPa - - - - 0,0 km/h (0 Bft) 56,52 %
_ Max-Zeit 14:58 14:40 12:44 22:42 23:10 17:20 12:08 05:48 14:12 11:36 00:50
Maximum _ 12,0 C 17,2 C 12,8 C 94 % 1021,9 hPa 0,2 l/m 4 min 2 min 741 W/m 45,1 km/h
S-SW (6 Bft)
100,00 %
Durchschnitt _ 7,4 C 7,0 C 6,2 C 83 % 1017,0 hPa #0,8 l/m #2:44 h #1:54 h 179 W/m 11,9 km/h (2 Bft) 97,51 %
© 2020 W. Hausmann